<?xml version="1.0" encoding="UTF-8"?>
<gpx
  version="1.0"
  creator="pymavlink"
  xmlns:xsi="http://www.w3.org/2001/XMLSchema-instance"
  xmlns="http://www.topografix.com/GPX/1/0"
  xsi:schemaLocation="http://www.topografix.com/GPX/1/0 http://www.topografix.com/GPX/1/0/gpx.xsd">
<trk>
<trkseg>
<trkpt lat="-34.9722477" lon="147.5159052">
  <ele>578.01</ele>
  <time>2026-08-28T17:25:14Z</time>
  <course>180.01</course>
  <speed>0.0</speed>
  <fix>3d</fix>
</trkpt>
<trkpt lat="-35.3632621" lon="149.165237">
  <ele>0.11</ele>
  <time>2026-08-28T17:25:14Z</time>
  <course>355.43</course>
  <speed>0.0</speed>
  <fix>3d</fix>
</trkpt>
<trkpt lat="-35.3632621" lon="149.165237">
  <ele>584.48</ele>
  <time>2026-08-28T17:25:14Z</time>
  <course>180.02</course>
  <speed>0.0</speed>
  <fix>3d</fix>
</trkpt>
<trkpt lat="-35.3632621" lon="149.165237">
  <ele>584.42</ele>
  <time>2026-08-28T17:25:14Z</time>
  <course>358.86</course>
  <speed>0.0</speed>
  <fix>3d</fix>
</trkpt>
<trkpt lat="-35.3632621" lon="149.165237">
  <ele>584.48</ele>
  <time>2026-08-28T17:25:14Z</time>
  <course>180.02</course>
  <speed>0.0</speed>
  <fix>3d</fix>
</trkpt>
<trkpt lat="-35.3632621" lon="149.165237">
  <ele>584.53</ele>
  <time>2026-08-28T17:25:14Z</time>
  <course>359.75</course>
  <speed>0.0</speed>
  <fix>3d</fix>
</trkpt>
<trkpt lat="-35.3632621" lon="149.165237">
  <ele>584.48</ele>
  <time>2026-08-28T17:25:14Z</time>
  <course>180.02</course>
  <speed>0.0</speed>
  <fix>3d</fix>
</trkpt>
<trkpt lat="-35.3632621" lon="149.165237">
  <ele>584.56</ele>
  <time>2026-08-28T17:25:14Z</time>
  <course>359.92</course>
  <speed>0.0</speed>
  <fix>3d</fix>
</trkpt>
<trkpt lat="-35.3632621" lon="149.165237">
  <ele>584.48</ele>
  <time>2026-08-28T17:25:14Z</time>
  <course>180.02</course>
  <speed>0.0</speed>
  <fix>3d</fix>
</trkpt>
<trkpt lat="-35.3632621" lon="149.165237">
  <ele>584.6</ele>
  <time>2026-08-28T17:25:14Z</time>
  <course>359.97</course>
  <speed>0.0</speed>
  <fix>3d</fix>
</trkpt>
<trkpt lat="-35.3632621" lon="149.165237">
  <ele>584.48</ele>
  <time>2026-08-28T17:25:14Z</time>
  <course>180.02</course>
  <speed>0.0</speed>
  <fix>3d</fix>
</trkpt>
<trkpt lat="-35.3632621" lon="149.165237">
  <ele>584.49</ele>
  <time>2026-08-28T17:25:14Z</time>
  <course>359.97</course>
  <speed>0.0</speed>
  <fix>3d</fix>
</trkpt>
<trkpt lat="-35.3632621" lon="149.165237">
  <ele>584.48</ele>
  <time>2026-08-28T17:25:14Z</time>
  <course>180.02</course>
  <speed>0.0</speed>
  <fix>3d</fix>
</trkpt>
<trkpt lat="-35.3632621" lon="149.165237">
  <ele>584.48</ele>
  <time>2026-08-28T17:25:14Z</time>
  <course>359.98</course>
  <speed>0.0</speed>
  <fix>3d</fix>
</trkpt>
<trkpt lat="-35.3632621" lon="149.165237">
  <ele>584.48</ele>
  <time>2026-08-28T17:25:14Z</time>
  <course>180.02</course>
  <speed>0.0</speed>
  <fix>3d</fix>
</trkpt>
<trkpt lat="-35.3632621" lon="149.165237">
  <ele>584.56</ele>
  <time>2026-08-28T17:25:14Z</time>
  <course>359.97</course>
  <speed>0.0</speed>
  <fix>3d</fix>
</trkpt>
<trkpt lat="-35.3632621" lon="149.165237">
  <ele>584.48</ele>
  <time>2026-08-28T17:25:14Z</time>
  <course>180.02</course>
  <speed>0.0</speed>
  <fix>3d</fix>
</trkpt>
<trkpt lat="-35.3632621" lon="149.165237">
  <ele>584.45</ele>
  <time>2026-08-28T17:25:14Z</time>
  <course>359.98</course>
  <speed>0.0</speed>
  <fix>3d</fix>
</trkpt>
<trkpt lat="-35.3632621" lon="149.165237">
  <ele>584.48</ele>
  <time>2026-08-28T17:25:14Z</time>
  <course>180.02</course>
  <speed>0.0</speed>
  <fix>3d</fix>
</trkpt>
<trkpt lat="-35.3632621" lon="149.165237">
  <ele>584.47</ele>
  <time>2026-08-28T17:25:14Z</time>
  <course>359.98</course>
  <speed>0.0</speed>
  <fix>3d</fix>
</trkpt>
<trkpt lat="-35.3632621" lon="149.165237">
  <ele>584.48</ele>
  <time>2026-08-28T17:25:14Z</time>
  <course>180.02</course>
  <speed>0.0</speed>
  <fix>3d</fix>
</trkpt>
<trkpt lat="-35.3632621" lon="149.165237">
  <ele>584.79</ele>
  <time>2026-08-28T17:25:14Z</time>
  <course>359.98</course>
  <speed>0.0</speed>
  <fix>3d</fix>
</trkpt>
<trkpt lat="-35.3632621" lon="149.165237">
  <ele>584.48</ele>
  <time>2026-08-28T17:25:14Z</time>
  <course>180.02</course>
  <speed>0.0</speed>
  <fix>3d</fix>
</trkpt>
<trkpt lat="-35.3632621" lon="149.165237">
  <ele>584.56</ele>
  <time>2026-08-28T17:25:14Z</time>
  <course>0.0</course>
  <speed>0.0</speed>
  <fix>3d</fix>
</trkpt>
<trkpt lat="-35.3632621" lon="149.165237">
  <ele>584.48</ele>
  <time>2026-08-28T17:25:14Z</time>
  <course>180.02</course>
  <speed>0.0</speed>
  <fix>3d</fix>
</trkpt>
<trkpt lat="-35.3632621" lon="149.165237">
  <ele>584.48</ele>
  <time>2026-08-28T17:25:14Z</time>
  <course>359.99</course>
  <speed>0.0</speed>
  <fix>3d</fix>
</trkpt>
<trkpt lat="-35.3632621" lon="149.165237">
  <ele>584.48</ele>
  <time>2026-08-28T17:25:14Z</time>
  <course>180.02</course>
  <speed>0.0</speed>
  <fix>3d</fix>
</trkpt>
<trkpt lat="-35.3632621" lon="149.165237">
  <ele>584.43</ele>
  <time>2026-08-28T17:25:14Z</time>
  <course>359.99</course>
  <speed>0.0</speed>
  <fix>3d</fix>
</trkpt>
<trkpt lat="-35.3632621" lon="149.165237">
  <ele>584.48</ele>
  <time>2026-08-28T17:25:14Z</time>
  <course>180.02</course>
  <speed>0.0</speed>
  <fix>3d</fix>
</trkpt>
<trkpt lat="-35.3632621" lon="149.165237">
  <ele>584.39</ele>
  <time>2026-08-28T17:25:14Z</time>
  <course>0.0</course>
  <speed>0.0</speed>
  <fix>3d</fix>
</trkpt>
<trkpt lat="-35.3632621" lon="149.165237">
  <ele>584.48</ele>
  <time>2026-08-28T17:25:14Z</time>
  <course>180.02</course>
  <speed>0.0</speed>
  <fix>3d</fix>
</trkpt>
<trkpt lat="-35.3632621" lon="149.165237">
  <ele>584.37</ele>
  <time>2026-08-28T17:25:14Z</time>
  <course>0.0</course>
  <speed>0.0</speed>
  <fix>3d</fix>
</trkpt>
<trkpt lat="-35.3632621" lon="149.165237">
  <ele>584.48</ele>
  <time>2026-08-28T17:25:14Z</time>
  <course>180.02</course>
  <speed>0.0</speed>
  <fix>3d</fix>
</trkpt>
<trkpt lat="-35.3632621" lon="149.165237">
  <ele>584.35</ele>
  <time>2026-08-28T17:25:14Z</time>
  <course>359.99</course>
  <speed>0.0</speed>
  <fix>3d</fix>
</trkpt>
<trkpt lat="-35.3632621" lon="149.165237">
  <ele>584.48</ele>
  <time>2026-08-28T17:25:14Z</time>
  <course>180.02</course>
  <speed>0.0</speed>
  <fix>3d</fix>
</trkpt>
<trkpt lat="-35.3632621" lon="149.165237">
  <ele>584.34</ele>
  <time>2026-08-28T17:25:14Z</time>
  <course>359.99</course>
  <speed>0.0</speed>
  <fix>3d</fix>
</trkpt>
<trkpt lat="-35.3632621" lon="149.165237">
  <ele>584.48</ele>
  <time>2026-08-28T17:25:14Z</time>
  <course>180.02</course>
  <speed>0.0</speed>
  <fix>3d</fix>
</trkpt>
<trkpt lat="-35.3632621" lon="149.165237">
  <ele>584.47</ele>
  <time>2026-08-28T17:25:14Z</time>
  <course>359.99</course>
  <speed>0.0</speed>
  <fix>3d</fix>
</trkpt>
<trkpt lat="-35.3632621" lon="149.165237">
  <ele>584.48</ele>
  <time>2026-08-28T17:25:14Z</time>
  <course>180.02</course>
  <speed>0.0</speed>
  <fix>3d</fix>
</trkpt>
<trkpt lat="-35.3632621" lon="149.165237">
  <ele>584.48</ele>
  <time>2026-08-28T17:25:15Z</time>
  <course>359.99</course>
  <speed>0.0</speed>
  <fix>3d</fix>
</trkpt>
<trkpt lat="-35.3632621" lon="149.165237">
  <ele>584.48</ele>
  <time>2026-08-28T17:25:15Z</time>
  <course>180.02</course>
  <speed>0.0</speed>
  <fix>3d</fix>
</trkpt>
<trkpt lat="-35.3632621" lon="149.165237">
  <ele>584.5</ele>
  <time>2026-08-28T17:25:15Z</time>
  <course>359.98</course>
  <speed>0.0</speed>
  <fix>3d</fix>
</trkpt>
<trkpt lat="-35.3632621" lon="149.165237">
  <ele>584.48</ele>
  <time>2026-08-28T17:25:15Z</time>
  <course>180.02</course>
  <speed>0.0</speed>
  <fix>3d</fix>
</trkpt>
<trkpt lat="-35.3632583" lon="149.165237">
  <ele>584.49</ele>
  <time>2026-08-28T17:25:15Z</time>
  <course>359.98</course>
  <speed>2.13</speed>
  <fix>3d</fix>
</trkpt>
<trkpt lat="-35.3632603" lon="149.165237">
  <ele>584.48</ele>
  <time>2026-08-28T17:25:15Z</time>
  <course>0.0</course>
  <speed>1.28</speed>
  <fix>3d</fix>
</trkpt>
<trkpt lat="-35.3631907" lon="149.165237">
  <ele>584.55</ele>
  <time>2026-08-28T17:25:15Z</time>
  <course>359.97</course>
  <speed>12.330004055149375</speed>
  <fix>3d</fix>
</trkpt>
<trkpt lat="-35.3632099" lon="149.165237">
  <ele>584.52</ele>
  <time>2026-08-28T17:25:15Z</time>
  <course>359.99</course>
  <speed>10.58</speed>
  <fix>3d</fix>
</trkpt>
<trkpt lat="-35.3630537" lon="149.165237">
  <ele>584.96</ele>
  <time>2026-08-28T17:25:15Z</time>
  <course>0.1</course>
  <speed>18.7900026609897</speed>
  <fix>3d</fix>
</trkpt>
<trkpt lat="-35.363081" lon="149.165237">
  <ele>584.75</ele>
  <time>2026-08-28T17:25:15Z</time>
  <course>0.0</course>
  <speed>17.59</speed>
  <fix>3d</fix>
</trkpt>
<trkpt lat="-35.3628666" lon="149.165237">
  <ele>592.25</ele>
  <time>2026-08-28T17:25:15Z</time>
  <course>359.92</course>
  <speed>23.19000215610167</speed>
  <fix>3d</fix>
</trkpt>
<trkpt lat="-35.3629059" lon="149.165237">
  <ele>590.94</ele>
  <time>2026-08-28T17:25:15Z</time>
  <course>359.99</course>
  <speed>22.26</speed>
  <fix>3d</fix>
</trkpt>
<trkpt lat="-35.3626567" lon="149.1652368">
  <ele>600.55</ele>
  <time>2026-08-28T17:25:15Z</time>
  <course>359.92</course>
  <speed>25.240049524515598</speed>
  <fix>3d</fix>
</trkpt>
<trkpt lat="-35.3626943" lon="149.1652368">
  <ele>598.83</ele>
  <time>2026-08-28T17:25:15Z</time>
  <course>359.85</course>
  <speed>24.77</speed>
  <fix>3d</fix>
</trkpt>
<trkpt lat="-35.3624192" lon="149.1652364">
  <ele>610.03</ele>
  <time>2026-08-28T17:25:15Z</time>
  <course>359.85</course>
  <speed>26.490016987537025</speed>
  <fix>3d</fix>
</trkpt>
<trkpt lat="-35.3624643" lon="149.1652363">
  <ele>607.91</ele>
  <time>2026-08-28T17:25:15Z</time>
  <course>359.9</course>
  <speed>26.18</speed>
  <fix>3d</fix>
</trkpt>
<trkpt lat="-35.3621777" lon="149.1652355">
  <ele>619.0</ele>
  <time>2026-08-28T17:25:15Z</time>
  <course>359.25</course>
  <speed>27.840114942291457</speed>
  <fix>3d</fix>
</trkpt>
<trkpt lat="-35.3622237" lon="149.1652356">
  <ele>617.05</ele>
  <time>2026-08-28T17:25:15Z</time>
  <course>359.8</course>
  <speed>27.52</speed>
  <fix>3d</fix>
</trkpt>
<trkpt lat="-35.3619231" lon="149.1652083">
  <ele>624.06</ele>
  <time>2026-08-28T17:25:15Z</time>
  <course>349.2</course>
  <speed>28.367398541283265</speed>
  <fix>3d</fix>
</trkpt>
<trkpt lat="-35.3619712" lon="149.1652198">
  <ele>622.88</ele>
  <time>2026-08-28T17:25:15Z</time>
  <course>349.79</course>
  <speed>28.35</speed>
  <fix>3d</fix>
</trkpt>
<trkpt lat="-35.3616982" lon="149.1650891">
  <ele>626.88</ele>
  <time>2026-08-28T17:25:15Z</time>
  <course>336.34</course>
  <speed>26.795076040198133</speed>
  <fix>3d</fix>
</trkpt>
<trkpt lat="-35.3617388" lon="149.1651132">
  <ele>626.25</ele>
  <time>2026-08-28T17:25:15Z</time>
  <course>334.1</course>
  <speed>27.09</speed>
  <fix>3d</fix>
</trkpt>
<trkpt lat="-35.3615081" lon="149.164925">
  <ele>626.61</ele>
  <time>2026-08-28T17:25:15Z</time>
  <course>320.39</course>
  <speed>24.822250099457143</speed>
  <fix>3d</fix>
</trkpt>
<trkpt lat="-35.3615401" lon="149.1649597">
  <ele>626.37</ele>
  <time>2026-08-28T17:25:15Z</time>
  <course>319.47</course>
  <speed>25.16</speed>
  <fix>3d</fix>
</trkpt>
<trkpt lat="-35.3613718" lon="149.1647206">
  <ele>625.46</ele>
  <time>2026-08-28T17:25:15Z</time>
  <course>303.73</course>
  <speed>23.754344865729298</speed>
  <fix>3d</fix>
</trkpt>
<trkpt lat="-35.3613932" lon="149.1647611">
  <ele>625.32</ele>
  <time>2026-08-28T17:25:15Z</time>
  <course>304.2</course>
  <speed>23.94</speed>
  <fix>3d</fix>
</trkpt>
<trkpt lat="-35.3612885" lon="149.164479">
  <ele>625.93</ele>
  <time>2026-08-28T17:25:15Z</time>
  <course>289.21</course>
  <speed>23.70047467879072</speed>
  <fix>3d</fix>
</trkpt>
<trkpt lat="-35.3613003" lon="149.1645256">
  <ele>625.48</ele>
  <time>2026-08-28T17:25:15Z</time>
  <course>288.78</course>
  <speed>23.75</speed>
  <fix>3d</fix>
</trkpt>
<trkpt lat="-35.3612418" lon="149.1642249">
  <ele>628.21</ele>
  <time>2026-08-28T17:25:15Z</time>
  <course>280.73</course>
  <speed>23.612899017274437</speed>
  <fix>3d</fix>
</trkpt>
<trkpt lat="-35.3612481" lon="149.1642725">
  <ele>627.45</ele>
  <time>2026-08-28T17:25:15Z</time>
  <course>280.37</course>
  <speed>23.67</speed>
  <fix>3d</fix>
</trkpt>
<trkpt lat="-35.3612148" lon="149.1639643">
  <ele>631.39</ele>
  <time>2026-08-28T17:25:15Z</time>
  <course>275.87</course>
  <speed>23.874312555548066</speed>
  <fix>3d</fix>
</trkpt>
<trkpt lat="-35.3612184" lon="149.1640137">
  <ele>630.48</ele>
  <time>2026-08-28T17:25:15Z</time>
  <course>275.84</course>
  <speed>23.82</speed>
  <fix>3d</fix>
</trkpt>
<trkpt lat="-35.3612014" lon="149.163702">
  <ele>635.22</ele>
  <time>2026-08-28T17:25:15Z</time>
  <course>272.7</course>
  <speed>23.908094863455766</speed>
  <fix>3d</fix>
</trkpt>
<trkpt lat="-35.361203" lon="149.1637512">
  <ele>634.23</ele>
  <time>2026-08-28T17:25:15Z</time>
  <course>272.63</course>
  <speed>23.92</speed>
  <fix>3d</fix>
</trkpt>
<trkpt lat="-35.3611974" lon="149.1634395">
  <ele>639.05</ele>
  <time>2026-08-28T17:25:15Z</time>
  <course>268.67</course>
  <speed>23.760254628265244</speed>
  <fix>3d</fix>
</trkpt>
<trkpt lat="-35.3611976" lon="149.1634884">
  <ele>638.06</ele>
  <time>2026-08-28T17:25:15Z</time>
  <course>270.29</course>
  <speed>23.8</speed>
  <fix>3d</fix>
</trkpt>
<trkpt lat="-35.3612398" lon="149.1631791">
  <ele>642.3</ele>
  <time>2026-08-28T17:25:15Z</time>
  <course>243.72</course>
  <speed>25.479046292983575</speed>
  <fix>3d</fix>
</trkpt>
<trkpt lat="-35.3612241" lon="149.1632261">
  <ele>641.29</ele>
  <time>2026-08-28T17:25:15Z</time>
  <course>248.7</course>
  <speed>25.17</speed>
  <fix>3d</fix>
</trkpt>
<trkpt lat="-35.3614083" lon="149.162997">
  <ele>648.76</ele>
  <time>2026-08-28T17:25:15Z</time>
  <course>217.23</course>
  <speed>24.647078934429533</speed>
  <fix>3d</fix>
</trkpt>
<trkpt lat="-35.3613741" lon="149.1630234">
  <ele>647.37</ele>
  <time>2026-08-28T17:25:15Z</time>
  <course>213.56</course>
  <speed>24.96</speed>
  <fix>3d</fix>
</trkpt>
<trkpt lat="-35.3615912" lon="149.1628571">
  <ele>650.73</ele>
  <time>2026-08-28T17:25:15Z</time>
  <course>209.74</course>
  <speed>23.492622246143572</speed>
  <fix>3d</fix>
</trkpt>
<trkpt lat="-35.361556" lon="149.1628789">
  <ele>650.38</ele>
  <time>2026-08-28T17:25:15Z</time>
  <course>210.01</course>
  <speed>23.48</speed>
  <fix>3d</fix>
</trkpt>
<trkpt lat="-35.361798" lon="149.1628107">
  <ele>652.78</ele>
  <time>2026-08-28T17:25:15Z</time>
  <course>180.3</course>
  <speed>23.714038036572347</speed>
  <fix>3d</fix>
</trkpt>
<trkpt lat="-35.3617578" lon="149.1628091">
  <ele>651.9</ele>
  <time>2026-08-28T17:25:15Z</time>
  <course>180.43</course>
  <speed>23.76</speed>
  <fix>3d</fix>
</trkpt>
<trkpt lat="-35.3620054" lon="149.1628498">
  <ele>655.44</ele>
  <time>2026-08-28T17:25:15Z</time>
  <course>171.09</course>
  <speed>23.065667126705875</speed>
  <fix>3d</fix>
</trkpt>
<trkpt lat="-35.3619671" lon="149.1628394">
  <ele>654.87</ele>
  <time>2026-08-28T17:25:15Z</time>
  <course>169.4</course>
  <speed>23.16</speed>
  <fix>3d</fix>
</trkpt>
<trkpt lat="-35.3622022" lon="149.1629226">
  <ele>656.72</ele>
  <time>2026-08-28T17:25:15Z</time>
  <course>161.16</course>
  <speed>22.943395563865433</speed>
  <fix>3d</fix>
</trkpt>
<trkpt lat="-35.3621665" lon="149.1629054">
  <ele>656.12</ele>
  <time>2026-08-28T17:25:15Z</time>
  <course>160.12</course>
  <speed>23.0</speed>
  <fix>3d</fix>
</trkpt>
<trkpt lat="-35.3623926" lon="149.1630235">
  <ele>658.1</ele>
  <time>2026-08-28T17:25:15Z</time>
  <course>156.02</course>
  <speed>22.99470591244863</speed>
  <fix>3d</fix>
</trkpt>
<trkpt lat="-35.3623574" lon="149.163003">
  <ele>657.53</ele>
  <time>2026-08-28T17:25:15Z</time>
  <course>155.43</course>
  <speed>23.03</speed>
  <fix>3d</fix>
</trkpt>
<trkpt lat="-35.362575" lon="149.1631301">
  <ele>659.34</ele>
  <time>2026-08-28T17:25:15Z</time>
  <course>154.33</course>
  <speed>23.00795731915374</speed>
  <fix>3d</fix>
</trkpt>
<trkpt lat="-35.3625443" lon="149.1631119">
  <ele>658.79</ele>
  <time>2026-08-28T17:25:15Z</time>
  <course>154.25</course>
  <speed>23.06</speed>
  <fix>3d</fix>
</trkpt>
<trkpt lat="-35.3627673" lon="149.1632404">
  <ele>660.49</ele>
  <time>2026-08-28T17:25:15Z</time>
  <course>154.92</course>
  <speed>23.078000346650487</speed>
  <fix>3d</fix>
</trkpt>
<trkpt lat="-35.3627318" lon="149.1632208">
  <ele>659.94</ele>
  <time>2026-08-28T17:25:15Z</time>
  <course>155.29</course>
  <speed>23.09</speed>
  <fix>3d</fix>
</trkpt>
<trkpt lat="-35.3629532" lon="149.1633377">
  <ele>661.4</ele>
  <time>2026-08-28T17:25:15Z</time>
  <course>157.03</course>
  <speed>23.01509939148645</speed>
  <fix>3d</fix>
</trkpt>
<trkpt lat="-35.3629217" lon="149.1633225">
  <ele>660.95</ele>
  <time>2026-08-28T17:25:15Z</time>
  <course>157.65</course>
  <speed>23.08</speed>
  <fix>3d</fix>
</trkpt>
<trkpt lat="-35.3631526" lon="149.1634284">
  <ele>662.17</ele>
  <time>2026-08-28T17:25:15Z</time>
  <course>159.85</course>
  <speed>23.02798731978112</speed>
  <fix>3d</fix>
</trkpt>
<trkpt lat="-35.3631155" lon="149.1634133">
  <ele>661.78</ele>
  <time>2026-08-28T17:25:15Z</time>
  <course>160.57</course>
  <speed>23.03</speed>
  <fix>3d</fix>
</trkpt>
<trkpt lat="-35.3633446" lon="149.1635023">
  <ele>662.77</ele>
  <time>2026-08-28T17:25:15Z</time>
  <course>162.76</course>
  <speed>22.898008647041777</speed>
  <fix>3d</fix>
</trkpt>
<trkpt lat="-35.3633119" lon="149.1634913">
  <ele>662.44</ele>
  <time>2026-08-28T17:25:15Z</time>
  <course>163.48</course>
  <speed>22.95</speed>
  <fix>3d</fix>
</trkpt>
<trkpt lat="-35.3635487" lon="149.1635684">
  <ele>663.24</ele>
  <time>2026-08-28T17:25:15Z</time>
  <course>165.31</course>
  <speed>22.877169842443358</speed>
  <fix>3d</fix>
</trkpt>
<trkpt lat="-35.3635106" lon="149.1635577">
  <ele>662.93</ele>
  <time>2026-08-28T17:25:15Z</time>
  <course>166.0</course>
  <speed>22.87</speed>
  <fix>3d</fix>
</trkpt>
<trkpt lat="-35.3637437" lon="149.1636218">
  <ele>663.56</ele>
  <time>2026-08-28T17:25:15Z</time>
  <course>167.56</course>
  <speed>22.775058726598267</speed>
  <fix>3d</fix>
</trkpt>
<trkpt lat="-35.3637105" lon="149.1636138">
  <ele>663.3</ele>
  <time>2026-08-28T17:25:15Z</time>
  <course>168.13</course>
  <speed>22.81</speed>
  <fix>3d</fix>
</trkpt>
<trkpt lat="-35.3639496" lon="149.1636703">
  <ele>663.79</ele>
  <time>2026-08-28T17:25:15Z</time>
  <course>169.02</course>
  <speed>22.77755035116814</speed>
  <fix>3d</fix>
</trkpt>
<trkpt lat="-35.3639117" lon="149.1636622">
  <ele>663.55</ele>
  <time>2026-08-28T17:25:15Z</time>
  <course>169.56</course>
  <speed>22.79</speed>
  <fix>3d</fix>
</trkpt>
<trkpt lat="-35.3641498" lon="149.1637129">
  <ele>664.04</ele>
  <time>2026-08-28T17:25:15Z</time>
  <course>170.08</course>
  <speed>22.660803163171423</speed>
  <fix>3d</fix>
</trkpt>
<trkpt lat="-35.3641131" lon="149.1637056">
  <ele>663.82</ele>
  <time>2026-08-28T17:25:15Z</time>
  <course>170.46</course>
  <speed>22.73</speed>
  <fix>3d</fix>
</trkpt>
<trkpt lat="-35.3643503" lon="149.1637691">
  <ele>664.04</ele>
  <time>2026-08-28T17:25:15Z</time>
  <course>161.37</course>
  <speed>23.161876003467423</speed>
  <fix>3d</fix>
</trkpt>
<trkpt lat="-35.3643132" lon="149.1637542">
  <ele>663.92</ele>
  <time>2026-08-28T17:25:15Z</time>
  <course>162.6</course>
  <speed>22.89</speed>
  <fix>3d</fix>
</trkpt>
<trkpt lat="-35.364514" lon="149.1639322">
  <ele>665.38</ele>
  <time>2026-08-28T17:25:15Z</time>
  <course>131.21</course>
  <speed>23.946342100621546</speed>
  <fix>3d</fix>
</trkpt>
<trkpt lat="-35.3644886" lon="149.1638956">
  <ele>664.85</ele>
  <time>2026-08-28T17:25:15Z</time>
  <course>131.07</course>
  <speed>24.04</speed>
  <fix>3d</fix>
</trkpt>
<trkpt lat="-35.3646262" lon="149.1641561">
  <ele>666.0</ele>
  <time>2026-08-28T17:25:16Z</time>
  <course>118.9</course>
  <speed>23.406118858110585</speed>
  <fix>3d</fix>
</trkpt>
<trkpt lat="-35.3646085" lon="149.1641121">
  <ele>665.96</ele>
  <time>2026-08-28T17:25:16Z</time>
  <course>118.15</course>
  <speed>23.42</speed>
  <fix>3d</fix>
</trkpt>
<trkpt lat="-35.3646805" lon="149.1644004">
  <ele>665.45</ele>
  <time>2026-08-28T17:25:16Z</time>
  <course>99.09</course>
  <speed>23.12776037579082</speed>
  <fix>3d</fix>
</trkpt>
<trkpt lat="-35.3646756" lon="149.1643533">
  <ele>665.42</ele>
  <time>2026-08-28T17:25:16Z</time>
  <course>98.95</course>
  <speed>23.15</speed>
  <fix>3d</fix>
</trkpt>
<trkpt lat="-35.3646674" lon="149.164654">
  <ele>664.69</ele>
  <time>2026-08-28T17:25:16Z</time>
  <course>77.41</course>
  <speed>23.583489987701142</speed>
  <fix>3d</fix>
</trkpt>
<trkpt lat="-35.3646759" lon="149.1646065">
  <ele>664.77</ele>
  <time>2026-08-28T17:25:16Z</time>
  <course>79.61</course>
  <speed>23.29</speed>
  <fix>3d</fix>
</trkpt>
<trkpt lat="-35.3645519" lon="149.1648714">
  <ele>665.28</ele>
  <time>2026-08-28T17:25:16Z</time>
  <course>47.33</course>
  <speed>23.88198065487869</speed>
  <fix>3d</fix>
</trkpt>
<trkpt lat="-35.3645795" lon="149.1648361">
  <ele>665.01</ele>
  <time>2026-08-28T17:25:16Z</time>
  <course>47.41</course>
  <speed>23.95</speed>
  <fix>3d</fix>
</trkpt>
<trkpt lat="-35.3643783" lon="149.1650205">
  <ele>665.26</ele>
  <time>2026-08-28T17:25:16Z</time>
  <course>30.1</course>
  <speed>23.304527457127296</speed>
  <fix>3d</fix>
</trkpt>
<trkpt lat="-35.3644132" lon="149.1649979">
  <ele>665.29</ele>
  <time>2026-08-28T17:25:16Z</time>
  <course>29.93</course>
  <speed>23.38</speed>
  <fix>3d</fix>
</trkpt>
<trkpt lat="-35.3641799" lon="149.1650902">
  <ele>664.55</ele>
  <time>2026-08-28T17:25:16Z</time>
  <course>9.17</course>
  <speed>22.99836950742378</speed>
  <fix>3d</fix>
</trkpt>
<trkpt lat="-35.3642181" lon="149.1650841">
  <ele>664.54</ele>
  <time>2026-08-28T17:25:16Z</time>
  <course>9.29</course>
  <speed>23.08</speed>
  <fix>3d</fix>
</trkpt>
<trkpt lat="-35.3639757" lon="149.1650797">
  <ele>663.89</ele>
  <time>2026-08-28T17:25:16Z</time>
  <course>353.94</course>
  <speed>22.611448427732356</speed>
  <fix>3d</fix>
</trkpt>
<trkpt lat="-35.3640131" lon="149.1650867">
  <ele>663.9</ele>
  <time>2026-08-28T17:25:16Z</time>
  <course>353.08</course>
  <speed>22.72</speed>
  <fix>3d</fix>
</trkpt>
<trkpt lat="-35.3637809" lon="149.1650147">
  <ele>663.21</ele>
  <time>2026-08-28T17:25:16Z</time>
  <course>342.22</course>
  <speed>22.373665323321525</speed>
  <fix>3d</fix>
</trkpt>
<trkpt lat="-35.3638157" lon="149.1650305">
  <ele>663.15</ele>
  <time>2026-08-28T17:25:16Z</time>
  <course>341.37</course>
  <speed>22.49</speed>
  <fix>3d</fix>
</trkpt>
<trkpt lat="-35.3635962" lon="149.1649177">
  <ele>662.81</ele>
  <time>2026-08-28T17:25:16Z</time>
  <course>335.71</course>
  <speed>22.274480914265993</speed>
  <fix>3d</fix>
</trkpt>
<trkpt lat="-35.3636293" lon="149.1649375">
  <ele>662.68</ele>
  <time>2026-08-28T17:25:16Z</time>
  <course>335.22</course>
  <speed>22.36</speed>
  <fix>3d</fix>
</trkpt>
<trkpt lat="-35.363416" lon="149.1648084">
  <ele>662.76</ele>
  <time>2026-08-28T17:25:16Z</time>
  <course>333.34</course>
  <speed>22.280217682958128</speed>
  <fix>3d</fix>
</trkpt>
<trkpt lat="-35.363449" lon="149.1648293">
  <ele>662.57</ele>
  <time>2026-08-28T17:25:16Z</time>
  <course>333.34</course>
  <speed>22.33</speed>
  <fix>3d</fix>
</trkpt>
<trkpt lat="-35.363235" lon="149.1647003">
  <ele>662.89</ele>
  <time>2026-08-28T17:25:16Z</time>
  <course>333.96</course>
  <speed>22.39852227268576</speed>
  <fix>3d</fix>
</trkpt>
<trkpt lat="-35.3632688" lon="149.1647201">
  <ele>662.64</ele>
  <time>2026-08-28T17:25:16Z</time>
  <course>334.4</course>
  <speed>22.42</speed>
  <fix>3d</fix>
</trkpt>
<trkpt lat="-35.3630499" lon="149.1646003">
  <ele>663.1</ele>
  <time>2026-08-28T17:25:16Z</time>
  <course>336.53</course>
  <speed>22.49753097564264</speed>
  <fix>3d</fix>
</trkpt>
<trkpt lat="-35.3630848" lon="149.164618">
  <ele>662.85</ele>
  <time>2026-08-28T17:25:16Z</time>
  <course>337.11</course>
  <speed>22.51</speed>
  <fix>3d</fix>
</trkpt>
<trkpt lat="-35.3628608" lon="149.164513">
  <ele>663.39</ele>
  <time>2026-08-28T17:25:16Z</time>
  <course>339.67</course>
  <speed>22.528919192895163</speed>
  <fix>3d</fix>
</trkpt>
<trkpt lat="-35.3628963" lon="149.164528">
  <ele>663.13</ele>
  <time>2026-08-28T17:25:16Z</time>
  <course>340.33</course>
  <speed>22.55</speed>
  <fix>3d</fix>
</trkpt>
<trkpt lat="-35.3626668" lon="149.1644381">
  <ele>663.61</ele>
  <time>2026-08-28T17:25:16Z</time>
  <course>342.65</course>
  <speed>22.57795606338182</speed>
  <fix>3d</fix>
</trkpt>
<trkpt lat="-35.3627037" lon="149.164451">
  <ele>663.39</ele>
  <time>2026-08-28T17:25:16Z</time>
  <course>343.43</course>
  <speed>22.54</speed>
  <fix>3d</fix>
</trkpt>
<trkpt lat="-35.3624752" lon="149.1643768">
  <ele>663.81</ele>
  <time>2026-08-28T17:25:16Z</time>
  <course>345.48</course>
  <speed>22.555234425738078</speed>
  <fix>3d</fix>
</trkpt>
<trkpt lat="-35.3625081" lon="149.1643863">
  <ele>663.58</ele>
  <time>2026-08-28T17:25:16Z</time>
  <course>346.23</course>
  <speed>22.56</speed>
  <fix>3d</fix>
</trkpt>
<trkpt lat="-35.3622723" lon="149.1643227">
  <ele>663.95</ele>
  <time>2026-08-28T17:25:16Z</time>
  <course>347.79</course>
  <speed>22.60046459699446</speed>
  <fix>3d</fix>
</trkpt>
<trkpt lat="-35.3623101" lon="149.1643318">
  <ele>663.73</ele>
  <time>2026-08-28T17:25:16Z</time>
  <course>348.4</course>
  <speed>22.58</speed>
  <fix>3d</fix>
</trkpt>
<trkpt lat="-35.3620778" lon="149.1642787">
  <ele>664.04</ele>
  <time>2026-08-28T17:25:16Z</time>
  <course>349.55</course>
  <speed>22.578662493602227</speed>
  <fix>3d</fix>
</trkpt>
<trkpt lat="-35.3621107" lon="149.1642855">
  <ele>663.86</ele>
  <time>2026-08-28T17:25:16Z</time>
  <course>350.1</course>
  <speed>22.61</speed>
  <fix>3d</fix>
</trkpt>
<trkpt lat="-35.3618726" lon="149.1642381">
  <ele>664.15</ele>
  <time>2026-08-28T17:25:16Z</time>
  <course>350.79</course>
  <speed>22.588868940254624</speed>
  <fix>3d</fix>
</trkpt>
<trkpt lat="-35.3619101" lon="149.1642451">
  <ele>663.95</ele>
  <time>2026-08-28T17:25:16Z</time>
  <course>351.15</course>
  <speed>22.61</speed>
  <fix>3d</fix>
</trkpt>
<trkpt lat="-35.3616767" lon="149.1642024">
  <ele>664.21</ele>
  <time>2026-08-28T17:25:16Z</time>
  <course>351.42</course>
  <speed>22.542604108664996</speed>
  <fix>3d</fix>
</trkpt>
<trkpt lat="-35.3617094" lon="149.1642082">
  <ele>664.03</ele>
  <time>2026-08-28T17:25:16Z</time>
  <course>351.69</course>
  <speed>22.6</speed>
  <fix>3d</fix>
</trkpt>
<trkpt lat="-35.3614703" lon="149.1641662">
  <ele>664.28</ele>
  <time>2026-08-28T17:25:16Z</time>
  <course>351.83</course>
  <speed>22.633095236842884</speed>
  <fix>3d</fix>
</trkpt>
<trkpt lat="-35.3615082" lon="149.1641728">
  <ele>664.1</ele>
  <time>2026-08-28T17:25:16Z</time>
  <course>351.94</course>
  <speed>22.62</speed>
  <fix>3d</fix>
</trkpt>
<trkpt lat="-35.3612749" lon="149.1641258">
  <ele>664.27</ele>
  <time>2026-08-28T17:25:16Z</time>
  <course>346.84</course>
  <speed>22.715809472699842</speed>
  <fix>3d</fix>
</trkpt>
<trkpt lat="-35.3613074" lon="149.1641349">
  <ele>664.15</ele>
  <time>2026-08-28T17:25:16Z</time>
  <course>347.62</course>
  <speed>22.68</speed>
  <fix>3d</fix>
</trkpt>
<trkpt lat="-35.3610937" lon="149.1639845">
  <ele>665.01</ele>
  <time>2026-08-28T17:25:16Z</time>
  <course>314.34</course>
  <speed>24.112905258388093</speed>
  <fix>3d</fix>
</trkpt>
<trkpt lat="-35.361122" lon="149.1640196">
  <ele>664.5</ele>
  <time>2026-08-28T17:25:16Z</time>
  <course>316.05</course>
  <speed>24.1</speed>
  <fix>3d</fix>
</trkpt>
<trkpt lat="-35.3609771" lon="149.1637659">
  <ele>666.33</ele>
  <time>2026-08-28T17:25:16Z</time>
  <course>301.3</course>
  <speed>23.413724607588602</speed>
  <fix>3d</fix>
</trkpt>
<trkpt lat="-35.3609953" lon="149.1638077">
  <ele>666.19</ele>
  <time>2026-08-28T17:25:16Z</time>
  <course>300.05</course>
  <speed>23.57</speed>
  <fix>3d</fix>
</trkpt>
<trkpt lat="-35.3609131" lon="149.1635226">
  <ele>665.93</ele>
  <time>2026-08-28T17:25:16Z</time>
  <course>281.3</course>
  <speed>23.047398985568847</speed>
  <fix>3d</fix>
</trkpt>
<trkpt lat="-35.3609195" lon="149.1635707">
  <ele>665.88</ele>
  <time>2026-08-28T17:25:16Z</time>
  <course>281.3</course>
  <speed>22.99</speed>
  <fix>3d</fix>
</trkpt>
<trkpt lat="-35.3609148" lon="149.1632746">
  <ele>665.61</ele>
  <time>2026-08-28T17:25:16Z</time>
  <course>265.45</course>
  <speed>22.49166289983913</speed>
  <fix>3d</fix>
</trkpt>
<trkpt lat="-35.3609105" lon="149.1633207">
  <ele>665.63</ele>
  <time>2026-08-28T17:25:16Z</time>
  <course>265.11</course>
  <speed>22.55</speed>
  <fix>3d</fix>
</trkpt>
<trkpt lat="-35.3609862" lon="149.16304">
  <ele>664.91</ele>
  <time>2026-08-28T17:25:16Z</time>
  <course>236.29</course>
  <speed>23.522044979125436</speed>
  <fix>3d</fix>
</trkpt>
<trkpt lat="-35.3609648" lon="149.1630813">
  <ele>664.81</ele>
  <time>2026-08-28T17:25:16Z</time>
  <course>239.36</course>
  <speed>23.32</speed>
  <fix>3d</fix>
</trkpt>
<trkpt lat="-35.3611458" lon="149.1628756">
  <ele>665.82</ele>
  <time>2026-08-28T17:25:16Z</time>
  <course>215.52</course>
  <speed>23.178492185644863</speed>
  <fix>3d</fix>
</trkpt>
<trkpt lat="-35.3611135" lon="149.1629013">
  <ele>665.65</ele>
  <time>2026-08-28T17:25:16Z</time>
  <course>214.25</course>
  <speed>23.33</speed>
  <fix>3d</fix>
</trkpt>
<trkpt lat="-35.3613353" lon="149.1627772">
  <ele>665.23</ele>
  <time>2026-08-28T17:25:16Z</time>
  <course>197.14</course>
  <speed>22.75856981446769</speed>
  <fix>3d</fix>
</trkpt>
<trkpt lat="-35.3612981" lon="149.1627893">
  <ele>665.25</ele>
  <time>2026-08-28T17:25:16Z</time>
  <course>197.2</course>
  <speed>22.78</speed>
  <fix>3d</fix>
</trkpt>
<trkpt lat="-35.3615371" lon="149.1627593">
  <ele>664.65</ele>
  <time>2026-08-28T17:25:16Z</time>
  <course>179.44</course>
  <speed>22.500579992524635</speed>
  <fix>3d</fix>
</trkpt>
<trkpt lat="-35.3614994" lon="149.1627567">
  <ele>664.62</ele>
  <time>2026-08-28T17:25:16Z</time>
  <course>178.68</course>
  <speed>22.58</speed>
  <fix>3d</fix>
</trkpt>
<trkpt lat="-35.361735" lon="149.1628033">
  <ele>663.95</ele>
  <time>2026-08-28T17:25:16Z</time>
  <course>166.99</course>
  <speed>22.28815829089519</speed>
  <fix>3d</fix>
</trkpt>
<trkpt lat="-35.3616986" lon="149.1627907">
  <ele>663.93</ele>
  <time>2026-08-28T17:25:16Z</time>
  <course>166.08</course>
  <speed>22.33</speed>
  <fix>3d</fix>
</trkpt>
<trkpt lat="-35.361922" lon="149.1628869">
  <ele>663.47</ele>
  <time>2026-08-28T17:25:16Z</time>
  <course>158.55</course>
  <speed>22.118627895961357</speed>
  <fix>3d</fix>
</trkpt>
<trkpt lat="-35.3618881" lon="149.1628687">
  <ele>663.37</ele>
  <time>2026-08-28T17:25:16Z</time>
  <course>157.75</course>
  <speed>22.2</speed>
  <fix>3d</fix>
</trkpt>
<trkpt lat="-35.3621027" lon="149.1629893">
  <ele>663.2</ele>
  <time>2026-08-28T17:25:17Z</time>
  <course>154.69</course>
  <speed>22.15157330755538</speed>
  <fix>3d</fix>
</trkpt>
<trkpt lat="-35.3620698" lon="149.1629692">
  <ele>663.04</ele>
  <time>2026-08-28T17:25:17Z</time>
  <course>154.32</course>
  <speed>22.22</speed>
  <fix>3d</fix>
</trkpt>
<trkpt lat="-35.3622828" lon="149.1630963">
  <ele>663.15</ele>
  <time>2026-08-28T17:25:17Z</time>
  <course>154.19</course>
  <speed>22.27959155819514</speed>
  <fix>3d</fix>
</trkpt>
<trkpt lat="-35.3622499" lon="149.1630766">
  <ele>662.96</ele>
  <time>2026-08-28T17:25:17Z</time>
  <course>154.22</course>
  <speed>22.34</speed>
  <fix>3d</fix>
</trkpt>
<trkpt lat="-35.3624663" lon="149.1631986">
  <ele>663.3</ele>
  <time>2026-08-28T17:25:17Z</time>
  <course>155.76</course>
  <speed>22.41929972144536</speed>
  <fix>3d</fix>
</trkpt>
<trkpt lat="-35.3624324" lon="149.1631805">
  <ele>663.08</ele>
  <time>2026-08-28T17:25:17Z</time>
  <course>156.14</course>
  <speed>22.45</speed>
  <fix>3d</fix>
</trkpt>
<trkpt lat="-35.3626545" lon="149.1632912">
  <ele>663.5</ele>
  <time>2026-08-28T17:25:17Z</time>
  <course>158.41</course>
  <speed>22.51187464428496</speed>
  <fix>3d</fix>
</trkpt>
<trkpt lat="-35.3626192" lon="149.1632751">
  <ele>663.27</ele>
  <time>2026-08-28T17:25:17Z</time>
  <course>159.04</course>
  <speed>22.51</speed>
  <fix>3d</fix>
</trkpt>
<trkpt lat="-35.3628463" lon="149.1633718">
  <ele>663.67</ele>
  <time>2026-08-28T17:25:17Z</time>
  <course>161.47</course>
  <speed>22.576434616652822</speed>
  <fix>3d</fix>
</trkpt>
<trkpt lat="-35.36281" lon="149.163358">
  <ele>663.48</ele>
  <time>2026-08-28T17:25:17Z</time>
  <course>161.99</course>
  <speed>22.56</speed>
  <fix>3d</fix>
</trkpt>
<trkpt lat="-35.3630415" lon="149.1634406">
  <ele>663.86</ele>
  <time>2026-08-28T17:25:17Z</time>
  <course>164.3</course>
  <speed>22.593443739279763</speed>
  <fix>3d</fix>
</trkpt>
<trkpt lat="-35.3630045" lon="149.1634289">
  <ele>663.68</ele>
  <time>2026-08-28T17:25:17Z</time>
  <course>164.76</course>
  <speed>22.59</speed>
  <fix>3d</fix>
</trkpt>
<trkpt lat="-35.3632381" lon="149.163499">
  <ele>664.0</ele>
  <time>2026-08-28T17:25:17Z</time>
  <course>166.68</course>
  <speed>22.559709661252292</speed>
  <fix>3d</fix>
</trkpt>
<trkpt lat="-35.3632013" lon="149.1634892">
  <ele>663.83</ele>
  <time>2026-08-28T17:25:17Z</time>
  <course>167.07</course>
  <speed>22.58</speed>
  <fix>3d</fix>
</trkpt>
<trkpt lat="-35.3634377" lon="149.1635496">
  <ele>664.08</ele>
  <time>2026-08-28T17:25:17Z</time>
  <course>168.58</course>
  <speed>22.617179311311123</speed>
  <fix>3d</fix>
</trkpt>
<trkpt lat="-35.3634" lon="149.1635409">
  <ele>663.93</ele>
  <time>2026-08-28T17:25:17Z</time>
  <course>168.89</course>
  <speed>22.61</speed>
  <fix>3d</fix>
</trkpt>
<trkpt lat="-35.3636329" lon="149.163593">
  <ele>664.2</ele>
  <time>2026-08-28T17:25:17Z</time>
  <course>169.78</course>
  <speed>22.57893044411094</speed>
  <fix>3d</fix>
</trkpt>
<trkpt lat="-35.3635997" lon="149.1635862">
  <ele>664.05</ele>
  <time>2026-08-28T17:25:17Z</time>
  <course>170.03</course>
  <speed>22.61</speed>
  <fix>3d</fix>
</trkpt>
<trkpt lat="-35.3638379" lon="149.163635">
  <ele>664.27</ele>
  <time>2026-08-28T17:25:17Z</time>
  <course>170.48</course>
  <speed>22.590309869499357</speed>
  <fix>3d</fix>
</trkpt>
<trkpt lat="-35.3638" lon="149.1636276">
  <ele>664.12</ele>
  <time>2026-08-28T17:25:17Z</time>
  <course>170.71</course>
  <speed>22.59</speed>
  <fix>3d</fix>
</trkpt>
<trkpt lat="-35.3640333" lon="149.1636735">
  <ele>664.3</ele>
  <time>2026-08-28T17:25:17Z</time>
  <course>170.81</course>
  <speed>22.5792293934049</speed>
  <fix>3d</fix>
</trkpt>
<trkpt lat="-35.3640004" lon="149.1636672">
  <ele>664.15</ele>
  <time>2026-08-28T17:25:17Z</time>
  <course>170.96</course>
  <speed>22.62</speed>
  <fix>3d</fix>
</trkpt>
<trkpt lat="-35.3642388" lon="149.1637137">
  <ele>664.35</ele>
  <time>2026-08-28T17:25:17Z</time>
  <course>168.69</course>
  <speed>22.637283405921302</speed>
  <fix>3d</fix>
</trkpt>
<trkpt lat="-35.3642014" lon="149.1637062">
  <ele>664.19</ele>
  <time>2026-08-28T17:25:17Z</time>
  <course>170.79</course>
  <speed>22.65</speed>
  <fix>3d</fix>
</trkpt>
<trkpt lat="-35.3644267" lon="149.1638017">
  <ele>664.28</ele>
  <time>2026-08-28T17:25:17Z</time>
  <course>147.5</course>
  <speed>23.933140203491895</speed>
  <fix>3d</fix>
</trkpt>
<trkpt lat="-35.3643971" lon="149.1637799">
  <ele>664.07</ele>
  <time>2026-08-28T17:25:17Z</time>
  <course>149.66</course>
  <speed>23.71</speed>
  <fix>3d</fix>
</trkpt>
<trkpt lat="-35.3645698" lon="149.1640077">
  <ele>666.1</ele>
  <time>2026-08-28T17:25:17Z</time>
  <course>126.74</course>
  <speed>23.85036896989227</speed>
  <fix>3d</fix>
</trkpt>
<trkpt lat="-35.3645476" lon="149.163966">
  <ele>665.76</ele>
  <time>2026-08-28T17:25:17Z</time>
  <course>124.72</course>
  <speed>23.9</speed>
  <fix>3d</fix>
</trkpt>
<trkpt lat="-35.3646576" lon="149.1642341">
  <ele>666.01</ele>
  <time>2026-08-28T17:25:17Z</time>
  <course>110.17</course>
  <speed>23.129764374070046</speed>
  <fix>3d</fix>
</trkpt>
<trkpt lat="-35.3646471" lon="149.1641935">
  <ele>665.94</ele>
  <time>2026-08-28T17:25:17Z</time>
  <course>109.83</course>
  <speed>23.17</speed>
  <fix>3d</fix>
</trkpt>
<trkpt lat="-35.3646829" lon="149.1644898">
  <ele>665.73</ele>
  <time>2026-08-28T17:25:17Z</time>
  <course>91.95</course>
  <speed>22.72740196326892</speed>
  <fix>3d</fix>
</trkpt>
<trkpt lat="-35.3646832" lon="149.1644417">
  <ele>665.69</ele>
  <time>2026-08-28T17:25:17Z</time>
  <course>91.34</course>
  <speed>22.75</speed>
  <fix>3d</fix>
</trkpt>
<trkpt lat="-35.364638" lon="149.1647316">
  <ele>665.18</ele>
  <time>2026-08-28T17:25:17Z</time>
  <course>65.03</course>
  <speed>23.402978442924738</speed>
  <fix>3d</fix>
</trkpt>
<trkpt lat="-35.3646538" lon="149.1646884">
  <ele>665.11</ele>
  <time>2026-08-28T17:25:17Z</time>
  <course>68.0</course>
  <speed>23.25</speed>
  <fix>3d</fix>
</trkpt>
<trkpt lat="-35.3644958" lon="149.164922">
  <ele>666.02</ele>
  <time>2026-08-28T17:25:17Z</time>
  <course>41.69</course>
  <speed>23.325153804423238</speed>
  <fix>3d</fix>
</trkpt>
<trkpt lat="-35.3645269" lon="149.1648915">
  <ele>665.85</ele>
  <time>2026-08-28T17:25:17Z</time>
  <course>40.77</course>
  <speed>23.38</speed>
  <fix>3d</fix>
</trkpt>
<trkpt lat="-35.3643168" lon="149.1650431">
  <ele>665.7</ele>
  <time>2026-08-28T17:25:17Z</time>
  <course>22.79</course>
  <speed>22.706562927929006</speed>
  <fix>3d</fix>
</trkpt>
<trkpt lat="-35.3643523" lon="149.1650268">
  <ele>665.69</ele>
  <time>2026-08-28T17:25:17Z</time>
  <course>22.95</course>
  <speed>22.8</speed>
  <fix>3d</fix>
</trkpt>
<trkpt lat="-35.3641163" lon="149.1650841">
  <ele>665.0</ele>
  <time>2026-08-28T17:25:17Z</time>
  <course>4.11</course>
  <speed>22.520375218898995</speed>
  <fix>3d</fix>
</trkpt>
<trkpt lat="-35.3641549" lon="149.1650829">
  <ele>665.02</ele>
  <time>2026-08-28T17:25:17Z</time>
  <course>3.7</course>
  <speed>22.54</speed>
  <fix>3d</fix>
</trkpt>
<trkpt lat="-35.3639185" lon="149.1650556">
  <ele>664.31</ele>
  <time>2026-08-28T17:25:17Z</time>
  <course>349.88</course>
  <speed>22.186486878277957</speed>
  <fix>3d</fix>
</trkpt>
<trkpt lat="-35.3639545" lon="149.1650656">
  <ele>664.3</ele>
  <time>2026-08-28T17:25:17Z</time>
  <course>349.07</course>
  <speed>22.29</speed>
  <fix>3d</fix>
</trkpt>
<trkpt lat="-35.3637289" lon="149.1649801">
  <ele>663.67</ele>
  <time>2026-08-28T17:25:17Z</time>
  <course>340.19</course>
  <speed>22.0887052585705</speed>
  <fix>3d</fix>
</trkpt>
<trkpt lat="-35.3637631" lon="149.1649973">
  <ele>663.62</ele>
  <time>2026-08-28T17:25:17Z</time>
  <course>339.35</course>
  <speed>22.14</speed>
  <fix>3d</fix>
</trkpt>
<trkpt lat="-35.3635482" lon="149.1648807">
  <ele>663.3</ele>
  <time>2026-08-28T17:25:17Z</time>
  <course>335.09</course>
  <speed>22.07626100588594</speed>
  <fix>3d</fix>
</trkpt>
<trkpt lat="-35.3635807" lon="149.1649004">
  <ele>663.17</ele>
  <time>2026-08-28T17:25:17Z</time>
  <course>334.64</course>
  <speed>22.16</speed>
  <fix>3d</fix>
</trkpt>
<trkpt lat="-35.3633681" lon="149.1647729">
  <ele>663.14</ele>
  <time>2026-08-28T17:25:17Z</time>
  <course>333.83</course>
  <speed>22.258989195379023</speed>
  <fix>3d</fix>
</trkpt>
<trkpt lat="-35.3634014" lon="149.1647932">
  <ele>662.97</ele>
  <time>2026-08-28T17:25:17Z</time>
  <course>333.87</course>
  <speed>22.27</speed>
  <fix>3d</fix>
</trkpt>
<trkpt lat="-35.3631863" lon="149.1646687">
  <ele>663.27</ele>
  <time>2026-08-28T17:25:17Z</time>
  <course>335.07</course>
  <speed>22.366045694310827</speed>
  <fix>3d</fix>
</trkpt>
<trkpt lat="-35.3632201" lon="149.1646875">
  <ele>663.04</ele>
  <time>2026-08-28T17:25:17Z</time>
  <course>335.52</course>
  <speed>22.39</speed>
  <fix>3d</fix>
</trkpt>
<trkpt lat="-35.3629997" lon="149.1645739">
  <ele>663.41</ele>
  <time>2026-08-28T17:25:17Z</time>
  <course>337.8</course>
  <speed>22.51806830081124</speed>
  <fix>3d</fix>
</trkpt>
<trkpt lat="-35.3630347" lon="149.1645904">
  <ele>663.17</ele>
  <time>2026-08-28T17:25:17Z</time>
  <course>338.36</course>
  <speed>22.51</speed>
  <fix>3d</fix>
</trkpt>
<trkpt lat="-35.3628086" lon="149.1644915">
  <ele>663.65</ele>
  <time>2026-08-28T17:25:17Z</time>
  <course>340.92</course>
  <speed>22.54883589012967</speed>
  <fix>3d</fix>
</trkpt>
<trkpt lat="-35.3628442" lon="149.1645055">
  <ele>663.39</ele>
  <time>2026-08-28T17:25:17Z</time>
  <course>341.62</course>
  <speed>22.56</speed>
  <fix>3d</fix>
</trkpt>
<trkpt lat="-35.3626138" lon="149.1644214">
  <ele>663.79</ele>
  <time>2026-08-28T17:25:17Z</time>
  <course>343.84</course>
  <speed>22.602168037602056</speed>
  <fix>3d</fix>
</trkpt>
<trkpt lat="-35.3626503" lon="149.1644332">
  <ele>663.56</ele>
  <time>2026-08-28T17:25:17Z</time>
  <course>344.5</course>
  <speed>22.58</speed>
  <fix>3d</fix>
</trkpt>
<trkpt lat="-35.3624161" lon="149.1643626">
  <ele>663.97</ele>
  <time>2026-08-28T17:25:17Z</time>
  <course>346.64</course>
  <speed>22.59997345131184</speed>
  <fix>3d</fix>
</trkpt>
<trkpt lat="-35.3624533" lon="149.1643725">
  <ele>663.74</ele>
  <time>2026-08-28T17:25:17Z</time>
  <course>347.2</course>
  <speed>22.59</speed>
  <fix>3d</fix>
</trkpt>
<trkpt lat="-35.3622173" lon="149.1643134">
  <ele>664.02</ele>
  <time>2026-08-28T17:25:17Z</time>
  <course>348.74</course>
  <speed>22.614765088322272</speed>
  <fix>3d</fix>
</trkpt>
<trkpt lat="-35.3622548" lon="149.1643219">
  <ele>663.83</ele>
  <time>2026-08-28T17:25:17Z</time>
  <course>349.21</course>
  <speed>22.59</speed>
  <fix>3d</fix>
</trkpt>
<trkpt lat="-35.3620169" lon="149.164271">
  <ele>664.14</ele>
  <time>2026-08-28T17:25:17Z</time>
  <course>350.26</course>
  <speed>22.618331061331645</speed>
  <fix>3d</fix>
</trkpt>
<trkpt lat="-35.3620547" lon="149.1642785">
  <ele>663.94</ele>
  <time>2026-08-28T17:25:17Z</time>
  <course>350.63</course>
  <speed>22.61</speed>
  <fix>3d</fix>
</trkpt>
<trkpt lat="-35.3618167" lon="149.1642329">
  <ele>664.2</ele>
  <time>2026-08-28T17:25:17Z</time>
  <course>351.2</course>
  <speed>22.58682137884833</speed>
  <fix>3d</fix>
</trkpt>
<trkpt lat="-35.361854" lon="149.1642397">
  <ele>664.03</ele>
  <time>2026-08-28T17:25:17Z</time>
  <course>351.41</course>
  <speed>22.62</speed>
  <fix>3d</fix>
</trkpt>
<trkpt lat="-35.3616148" lon="149.1641968">
  <ele>664.25</ele>
  <time>2026-08-28T17:25:17Z</time>
  <course>351.72</course>
  <speed>22.638732296663612</speed>
  <fix>3d</fix>
</trkpt>
<trkpt lat="-35.3616528" lon="149.1642035">
  <ele>664.09</ele>
  <time>2026-08-28T17:25:17Z</time>
  <course>351.83</course>
  <speed>22.63</speed>
  <fix>3d</fix>
</trkpt>
<trkpt lat="-35.3614181" lon="149.1641626">
  <ele>664.29</ele>
  <time>2026-08-28T17:25:17Z</time>
  <course>351.72</course>
  <speed>22.62319385055965</speed>
  <fix>3d</fix>
</trkpt>
<trkpt lat="-35.3614514" lon="149.1641685">
  <ele>664.14</ele>
  <time>2026-08-28T17:25:17Z</time>
  <course>351.94</course>
  <speed>22.66</speed>
  <fix>3d</fix>
</trkpt>
<trkpt lat="-35.3612146" lon="149.1641035">
  <ele>664.1</ele>
  <time>2026-08-28T17:25:18Z</time>
  <course>338.57</course>
  <speed>23.491753872369767</speed>
  <fix>3d</fix>
</trkpt>
<trkpt lat="-35.3612513" lon="149.1641201">
  <ele>664.06</ele>
  <time>2026-08-28T17:25:18Z</time>
  <course>340.55</course>
  <speed>23.09</speed>
  <fix>3d</fix>
</trkpt>
<trkpt lat="-35.3610601" lon="149.163932">
  <ele>665.67</ele>
  <time>2026-08-28T17:25:18Z</time>
  <course>310.26</course>
  <speed>23.99971041491959</speed>
  <fix>3d</fix>
</trkpt>
<trkpt lat="-35.3610817" lon="149.1639657">
  <ele>665.27</ele>
  <time>2026-08-28T17:25:18Z</time>
  <course>308.79</course>
  <speed>24.06</speed>
  <fix>3d</fix>
</trkpt>
<trkpt lat="-35.3609519" lon="149.1637006">
  <ele>666.15</ele>
  <time>2026-08-28T17:25:18Z</time>
  <course>295.88</course>
  <speed>23.31603096583979</speed>
  <fix>3d</fix>
</trkpt>
<trkpt lat="-35.3609676" lon="149.1637449">
  <ele>666.15</ele>
  <time>2026-08-28T17:25:18Z</time>
  <course>295.45</course>
  <speed>23.35</speed>
  <fix>3d</fix>
</trkpt>
<trkpt lat="-35.3609102" lon="149.1634594">
  <ele>665.96</ele>
  <time>2026-08-28T17:25:18Z</time>
  <course>276.59</course>
  <speed>22.835082658050528</speed>
  <fix>3d</fix>
</trkpt>
<trkpt lat="-35.3609125" lon="149.1635009">
  <ele>665.91</ele>
  <time>2026-08-28T17:25:18Z</time>
  <course>275.58</course>
  <speed>22.89</speed>
  <fix>3d</fix>
</trkpt>
<trkpt lat="-35.3609261" lon="149.1632055">
  <ele>665.33</ele>
  <time>2026-08-28T17:25:18Z</time>
  <course>259.85</course>
  <speed>22.625658001481415</speed>
  <fix>3d</fix>
</trkpt>
<trkpt lat="-35.3609185" lon="149.1632522">
  <ele>665.45</ele>
  <time>2026-08-28T17:25:18Z</time>
  <course>260.66</course>
  <speed>22.48</speed>
  <fix>3d</fix>
</trkpt>
<trkpt lat="-35.3610253" lon="149.1629927">
  <ele>665.33</ele>
  <time>2026-08-28T17:25:18Z</time>
  <course>228.26</course>
  <speed>23.434478871952752</speed>
  <fix>3d</fix>
</trkpt>
<trkpt lat="-35.361002" lon="149.1630243">
  <ele>665.11</ele>
  <time>2026-08-28T17:25:18Z</time>
  <course>229.17</course>
  <speed>23.43</speed>
  <fix>3d</fix>
</trkpt>
<trkpt lat="-35.3611999" lon="149.1628418">
  <ele>665.79</ele>
  <time>2026-08-28T17:25:18Z</time>
  <course>211.01</course>
  <speed>22.992018180229415</speed>
  <fix>3d</fix>
</trkpt>
<trkpt lat="-35.3611652" lon="149.1628647">
  <ele>665.8</ele>
  <time>2026-08-28T17:25:18Z</time>
  <course>210.39</course>
  <speed>23.05</speed>
  <fix>3d</fix>
</trkpt>
<trkpt lat="-35.3613926" lon="149.1627678">
  <ele>665.3</ele>
  <time>2026-08-28T17:25:18Z</time>
  <course>191.42</course>
  <speed>22.561686550433237</speed>
  <fix>3d</fix>
</trkpt>
<trkpt lat="-35.3613556" lon="149.1627751">
  <ele>665.32</ele>
  <time>2026-08-28T17:25:18Z</time>
  <course>191.22</course>
  <speed>22.65</speed>
  <fix>3d</fix>
</trkpt>
<trkpt lat="-35.3615948" lon="149.1627688">
  <ele>664.69</ele>
  <time>2026-08-28T17:25:18Z</time>
  <course>176.01</course>
  <speed>22.32443728294176</speed>
  <fix>3d</fix>
</trkpt>
<trkpt lat="-35.3615568" lon="149.1627632">
  <ele>664.75</ele>
  <time>2026-08-28T17:25:18Z</time>
  <course>175.14</course>
  <speed>22.35</speed>
  <fix>3d</fix>
</trkpt>
<trkpt lat="-35.3617876" lon="149.1628244">
  <ele>664.06</ele>
  <time>2026-08-28T17:25:18Z</time>
  <course>164.36</course>
  <speed>22.08534808419374</speed>
  <fix>3d</fix>
</trkpt>
<trkpt lat="-35.3617527" lon="149.1628103">
  <ele>664.05</ele>
  <time>2026-08-28T17:25:18Z</time>
  <course>163.4</course>
  <speed>22.18</speed>
  <fix>3d</fix>
</trkpt>
<trkpt lat="-35.3619733" lon="149.1629141">
  <ele>663.52</ele>
  <time>2026-08-28T17:25:18Z</time>
  <course>157.51</course>
  <speed>22.084929250509273</speed>
  <fix>3d</fix>
</trkpt>
<trkpt lat="-35.3619391" lon="149.1628949">
  <ele>663.49</ele>
  <time>2026-08-28T17:25:18Z</time>
  <course>156.75</course>
  <speed>22.12</speed>
  <fix>3d</fix>
</trkpt>
<trkpt lat="-35.3621525" lon="149.163017">
  <ele>663.34</ele>
  <time>2026-08-28T17:25:18Z</time>
  <course>154.63</course>
  <speed>22.121274827640473</speed>
  <fix>3d</fix>
</trkpt>
<trkpt lat="-35.3621198" lon="149.1629972">
  <ele>663.2</ele>
  <time>2026-08-28T17:25:18Z</time>
  <course>154.37</course>
  <speed>22.21</speed>
  <fix>3d</fix>
</trkpt>
<trkpt lat="-35.3623339" lon="149.1631224">
  <ele>663.27</ele>
  <time>2026-08-28T17:25:18Z</time>
  <course>154.73</course>
  <speed>22.330915789550595</speed>
  <fix>3d</fix>
</trkpt>
<trkpt lat="-35.3623004" lon="149.1631031">
  <ele>663.11</ele>
  <time>2026-08-28T17:25:18Z</time>
  <course>154.88</course>
  <speed>22.35</speed>
  <fix>3d</fix>
</trkpt>
<trkpt lat="-35.3625182" lon="149.1632213">
  <ele>663.44</ele>
  <time>2026-08-28T17:25:18Z</time>
  <course>156.73</course>
  <speed>22.434870180145907</speed>
  <fix>3d</fix>
</trkpt>
<trkpt lat="-35.3624843" lon="149.163204">
  <ele>663.24</ele>
  <time>2026-08-28T17:25:18Z</time>
  <course>157.06</course>
  <speed>22.48</speed>
  <fix>3d</fix>
</trkpt>
<trkpt lat="-35.3627081" lon="149.1633106">
  <ele>663.58</ele>
  <time>2026-08-28T17:25:18Z</time>
  <course>159.33</course>
  <speed>22.569643329038232</speed>
  <fix>3d</fix>
</trkpt>
<trkpt lat="-35.3626724" lon="149.1632952">
  <ele>663.38</ele>
  <time>2026-08-28T17:25:18Z</time>
  <course>159.86</course>
  <speed>22.56</speed>
  <fix>3d</fix>
</trkpt>
<trkpt lat="-35.3629008" lon="149.1633879">
  <ele>663.78</ele>
  <time>2026-08-28T17:25:18Z</time>
  <course>162.19</course>
  <speed>22.583648952284037</speed>
  <fix>3d</fix>
</trkpt>
<trkpt lat="-35.3628646" lon="149.1633748">
  <ele>663.57</ele>
  <time>2026-08-28T17:25:18Z</time>
  <course>162.74</course>
  <speed>22.58</speed>
  <fix>3d</fix>
</trkpt>
<trkpt lat="-35.363097" lon="149.1634545">
  <ele>663.94</ele>
  <time>2026-08-28T17:25:18Z</time>
  <course>164.8</course>
  <speed>22.626190576409453</speed>
  <fix>3d</fix>
</trkpt>
<trkpt lat="-35.3630598" lon="149.1634432">
  <ele>663.73</ele>
  <time>2026-08-28T17:25:18Z</time>
  <course>165.3</course>
  <speed>22.6</speed>
  <fix>3d</fix>
</trkpt>
<trkpt lat="-35.3632944" lon="149.1635112">
  <ele>664.07</ele>
  <time>2026-08-28T17:25:18Z</time>
  <course>167.08</course>
  <speed>22.590728186581327</speed>
  <fix>3d</fix>
</trkpt>
<trkpt lat="-35.3632572" lon="149.1635016">
  <ele>663.86</ele>
  <time>2026-08-28T17:25:18Z</time>
  <course>167.5</course>
  <speed>22.6</speed>
  <fix>3d</fix>
</trkpt>
<trkpt lat="-35.3634933" lon="149.1635603">
  <ele>664.15</ele>
  <time>2026-08-28T17:25:18Z</time>
  <course>168.81</course>
  <speed>22.5962319867716</speed>
  <fix>3d</fix>
</trkpt>
<trkpt lat="-35.363456" lon="149.1635518">
  <ele>663.94</ele>
  <time>2026-08-28T17:25:18Z</time>
  <course>169.11</course>
  <speed>22.61</speed>
  <fix>3d</fix>
</trkpt>
<trkpt lat="-35.3636934" lon="149.1636041">
  <ele>664.22</ele>
  <time>2026-08-28T17:25:18Z</time>
  <course>169.99</course>
  <speed>22.567130965189172</speed>
  <fix>3d</fix>
</trkpt>
<trkpt lat="-35.3636559" lon="149.1635964">
  <ele>664.01</ele>
  <time>2026-08-28T17:25:18Z</time>
  <course>170.18</course>
  <speed>22.58</speed>
  <fix>3d</fix>
</trkpt>
<trkpt lat="-35.3638933" lon="149.1636447">
  <ele>664.25</ele>
  <time>2026-08-28T17:25:18Z</time>
  <course>170.56</course>
  <speed>22.587122437353546</speed>
  <fix>3d</fix>
</trkpt>
<trkpt lat="-35.3638559" lon="149.1636375">
  <ele>664.07</ele>
  <time>2026-08-28T17:25:18Z</time>
  <course>170.76</course>
  <speed>22.6</speed>
  <fix>3d</fix>
</trkpt>
<trkpt lat="-35.3640942" lon="149.1636841">
  <ele>664.31</ele>
  <time>2026-08-28T17:25:18Z</time>
  <course>170.95</course>
  <speed>22.59585802752354</speed>
  <fix>3d</fix>
</trkpt>
<trkpt lat="-35.3640566" lon="149.1636768">
  <ele>664.13</ele>
  <time>2026-08-28T17:25:18Z</time>
  <course>170.99</course>
  <speed>22.62</speed>
  <fix>3d</fix>
</trkpt>
<trkpt lat="-35.3642939" lon="149.1637274">
  <ele>664.27</ele>
  <time>2026-08-28T17:25:18Z</time>
  <course>166.73</course>
  <speed>22.705384823869426</speed>
  <fix>3d</fix>
</trkpt>
<trkpt lat="-35.3642572" lon="149.1637175">
  <ele>664.13</ele>
  <time>2026-08-28T17:25:18Z</time>
  <course>168.09</course>
  <speed>22.68</speed>
  <fix>3d</fix>
</trkpt>
<trkpt lat="-35.3644749" lon="149.1638569">
  <ele>664.8</ele>
  <time>2026-08-28T17:25:18Z</time>
  <course>136.98</course>
  <speed>24.078326353797934</speed>
  <fix>3d</fix>
</trkpt>
<trkpt lat="-35.3644453" lon="149.1638243">
  <ele>664.35</ele>
  <time>2026-08-28T17:25:18Z</time>
  <course>138.97</course>
  <speed>24.06</speed>
  <fix>3d</fix>
</trkpt>
<trkpt lat="-35.3645958" lon="149.1640676">
  <ele>666.15</ele>
  <time>2026-08-28T17:25:18Z</time>
  <course>123.27</course>
  <speed>23.55176851109063</speed>
  <fix>3d</fix>
</trkpt>
<trkpt lat="-35.3645783" lon="149.1640306">
  <ele>666.0</ele>
  <time>2026-08-28T17:25:18Z</time>
  <course>121.48</course>
  <speed>23.66</speed>
  <fix>3d</fix>
</trkpt>
<trkpt lat="-35.3646689" lon="149.1643129">
  <ele>665.85</ele>
  <time>2026-08-28T17:25:18Z</time>
  <course>103.67</course>
  <speed>23.083944636911607</speed>
  <fix>3d</fix>
</trkpt>
<trkpt lat="-35.3646607" lon="149.1642656">
  <ele>665.82</ele>
  <time>2026-08-28T17:25:18Z</time>
  <course>103.6</course>
  <speed>23.06</speed>
  <fix>3d</fix>
</trkpt>
<trkpt lat="-35.3646747" lon="149.1645567">
  <ele>665.6</ele>
  <time>2026-08-28T17:25:18Z</time>
  <course>86.73</course>
  <speed>22.730343156230614</speed>
  <fix>3d</fix>
</trkpt>
<trkpt lat="-35.3646775" lon="149.1645155">
  <ele>665.63</ele>
  <time>2026-08-28T17:25:18Z</time>
  <course>86.55</course>
  <speed>22.69</speed>
  <fix>3d</fix>
</trkpt>
<trkpt lat="-35.3645929" lon="149.1647949">
  <ele>665.55</ele>
  <time>2026-08-28T17:25:18Z</time>
  <course>54.3</course>
  <speed>23.5284338620317</speed>
  <fix>3d</fix>
</trkpt>
<trkpt lat="-35.3646159" lon="149.1647555">
  <ele>665.33</ele>
  <time>2026-08-28T17:25:18Z</time>
  <course>55.94</course>
  <speed>23.5</speed>
  <fix>3d</fix>
</trkpt>
<trkpt lat="-35.3644393" lon="149.1649587">
  <ele>666.16</ele>
  <time>2026-08-28T17:25:18Z</time>
  <course>36.97</course>
  <speed>22.941510412350794</speed>
  <fix>3d</fix>
</trkpt>
<trkpt lat="-35.3644673" lon="149.1649354">
  <ele>666.08</ele>
  <time>2026-08-28T17:25:18Z</time>
  <course>35.92</course>
  <speed>23.08</speed>
  <fix>3d</fix>
</trkpt>
<trkpt lat="-35.3642475" lon="149.1650592">
  <ele>665.51</ele>
  <time>2026-08-28T17:25:18Z</time>
  <course>16.41</course>
  <speed>22.616111513697486</speed>
  <fix>3d</fix>
</trkpt>
<trkpt lat="-35.3642849" lon="149.1650474">
  <ele>665.55</ele>
  <time>2026-08-28T17:25:18Z</time>
  <course>16.54</course>
  <speed>22.61</speed>
  <fix>3d</fix>
</trkpt>
<trkpt lat="-35.3640521" lon="149.1650753">
  <ele>664.97</ele>
  <time>2026-08-28T17:25:18Z</time>
  <course>359.62</course>
  <speed>22.264020301823297</speed>
  <fix>3d</fix>
</trkpt>
<trkpt lat="-35.3640852" lon="149.1650776">
  <ele>664.96</ele>
  <time>2026-08-28T17:25:18Z</time>
  <course>358.53</course>
  <speed>22.36</speed>
  <fix>3d</fix>
</trkpt>
<trkpt lat="-35.3638515" lon="149.1650301">
  <ele>664.18</ele>
  <time>2026-08-28T17:25:18Z</time>
  <course>346.56</course>
  <speed>22.106698079993766</speed>
  <fix>3d</fix>
</trkpt>
<trkpt lat="-35.3638878" lon="149.165043">
  <ele>664.19</ele>
  <time>2026-08-28T17:25:18Z</time>
  <course>345.6</course>
  <speed>22.14</speed>
  <fix>3d</fix>
</trkpt>
<trkpt lat="-35.363667" lon="149.1649466">
  <ele>663.67</ele>
  <time>2026-08-28T17:25:18Z</time>
  <course>338.33</course>
  <speed>21.958645222326446</speed>
  <fix>3d</fix>
</trkpt>
<trkpt lat="-35.3637003" lon="149.1649644">
  <ele>663.6</ele>
  <time>2026-08-28T17:25:18Z</time>
  <course>337.62</course>
  <speed>22.05</speed>
  <fix>3d</fix>
</trkpt>
<trkpt lat="-35.3634861" lon="149.1648435">
  <ele>663.28</ele>
  <time>2026-08-28T17:25:18Z</time>
  <course>334.66</course>
  <speed>22.14281373267634</speed>
  <fix>3d</fix>
</trkpt>
<trkpt lat="-35.3635196" lon="149.164864">
  <ele>663.15</ele>
  <time>2026-08-28T17:25:18Z</time>
  <course>334.32</course>
  <speed>22.15</speed>
  <fix>3d</fix>
</trkpt>
<trkpt lat="-35.3633067" lon="149.1647381">
  <ele>663.22</ele>
  <time>2026-08-28T17:25:18Z</time>
  <course>334.46</course>
  <speed>22.255898094662456</speed>
  <fix>3d</fix>
</trkpt>
<trkpt lat="-35.3633398" lon="149.1647576">
  <ele>663.04</ele>
  <time>2026-08-28T17:25:18Z</time>
  <course>334.59</course>
  <speed>22.31</speed>
  <fix>3d</fix>
</trkpt>
<trkpt lat="-35.3631216" lon="149.1646371">
  <ele>663.32</ele>
  <time>2026-08-28T17:25:18Z</time>
  <course>336.14</course>
  <speed>22.476265259157273</speed>
  <fix>3d</fix>
</trkpt>
<trkpt lat="-35.3631567" lon="149.1646555">
  <ele>663.1</ele>
  <time>2026-08-28T17:25:18Z</time>
  <course>336.66</course>
  <speed>22.45</speed>
  <fix>3d</fix>
</trkpt>
<trkpt lat="-35.362934" lon="149.1645474">
  <ele>663.52</ele>
  <time>2026-08-28T17:25:18Z</time>
  <course>339.05</course>
  <speed>22.51772857106151</speed>
  <fix>3d</fix>
</trkpt>
<trkpt lat="-35.3629691" lon="149.1645629">
  <ele>663.28</ele>
  <time>2026-08-28T17:25:18Z</time>
  <course>339.64</course>
  <speed>22.54</speed>
  <fix>3d</fix>
</trkpt>
<trkpt lat="-35.3627408" lon="149.1644694">
  <ele>663.65</ele>
  <time>2026-08-28T17:25:18Z</time>
  <course>342.1</course>
  <speed>22.62198046148922</speed>
  <fix>3d</fix>
</trkpt>
<trkpt lat="-35.3627772" lon="149.1644827">
  <ele>663.44</ele>
  <time>2026-08-28T17:25:18Z</time>
  <course>342.73</course>
  <speed>22.6</speed>
  <fix>3d</fix>
</trkpt>
<trkpt lat="-35.3625455" lon="149.1644039">
  <ele>663.84</ele>
  <time>2026-08-28T17:25:18Z</time>
  <course>344.94</course>
  <speed>22.575245292133594</speed>
  <fix>3d</fix>
</trkpt>
<trkpt lat="-35.3625818" lon="149.1644149">
  <ele>663.64</ele>
  <time>2026-08-28T17:25:18Z</time>
  <course>345.5</course>
  <speed>22.6</speed>
  <fix>3d</fix>
</trkpt>
<trkpt lat="-35.3623469" lon="149.1643484">
  <ele>663.97</ele>
  <time>2026-08-28T17:25:19Z</time>
  <course>347.33</course>
  <speed>22.622610371042505</speed>
  <fix>3d</fix>
</trkpt>
<trkpt lat="-35.3623844" lon="149.1643578">
  <ele>663.8</ele>
  <time>2026-08-28T17:25:19Z</time>
  <course>347.85</course>
  <speed>22.59</speed>
  <fix>3d</fix>
</trkpt>
<trkpt lat="-35.3621478" lon="149.1643011">
  <ele>664.09</ele>
  <time>2026-08-28T17:25:19Z</time>
  <course>349.2</course>
  <speed>22.59155815786065</speed>
  <fix>3d</fix>
</trkpt>
<trkpt lat="-35.3621851" lon="149.1643092">
  <ele>663.92</ele>
  <time>2026-08-28T17:25:19Z</time>
  <course>349.56</course>
  <speed>22.6</speed>
  <fix>3d</fix>
</trkpt>
<trkpt lat="-35.3619472" lon="149.1642595">
  <ele>664.16</ele>
  <time>2026-08-28T17:25:19Z</time>
  <course>350.46</course>
  <speed>22.623450223164458</speed>
  <fix>3d</fix>
</trkpt>
<trkpt lat="-35.3619851" lon="149.1642668">
  <ele>664.0</ele>
  <time>2026-08-28T17:25:19Z</time>
  <course>350.72</course>
  <speed>22.6</speed>
  <fix>3d</fix>
</trkpt>
<trkpt lat="-35.3617469" lon="149.1642216">
  <ele>664.24</ele>
  <time>2026-08-28T17:25:19Z</time>
  <course>351.21</course>
  <speed>22.58682137884833</speed>
  <fix>3d</fix>
</trkpt>
<trkpt lat="-35.3617843" lon="149.1642284">
  <ele>664.08</ele>
  <time>2026-08-28T17:25:19Z</time>
  <course>351.45</course>
  <speed>22.62</speed>
  <fix>3d</fix>
</trkpt>
<trkpt lat="-35.3615459" lon="149.1641854">
  <ele>664.27</ele>
  <time>2026-08-28T17:25:19Z</time>
  <course>351.66</course>
  <speed>22.62464585358189</speed>
  <fix>3d</fix>
</trkpt>
<trkpt lat="-35.3615833" lon="149.164192">
  <ele>664.12</ele>
  <time>2026-08-28T17:25:19Z</time>
  <course>351.72</course>
  <speed>22.64</speed>
  <fix>3d</fix>
</trkpt>
<trkpt lat="-35.3613443" lon="149.1641486">
  <ele>664.34</ele>
  <time>2026-08-28T17:25:19Z</time>
  <course>348.88</course>
  <speed>22.62641376798365</speed>
  <fix>3d</fix>
</trkpt>
<trkpt lat="-35.3613819" lon="149.1641561">
  <ele>664.2</ele>
  <time>2026-08-28T17:25:19Z</time>
  <course>351.07</course>
  <speed>22.64</speed>
  <fix>3d</fix>
</trkpt>
<trkpt lat="-35.3611541" lon="149.1640486">
  <ele>664.38</ele>
  <time>2026-08-28T17:25:19Z</time>
  <course>323.78</course>
  <speed>24.10696994646984</speed>
  <fix>3d</fix>
</trkpt>
<trkpt lat="-35.361187" lon="149.1640766">
  <ele>664.1</ele>
  <time>2026-08-28T17:25:19Z</time>
  <course>326.79</course>
  <speed>23.89</speed>
  <fix>3d</fix>
</trkpt>
<trkpt lat="-35.3610197" lon="149.1638423">
  <ele>666.2</ele>
  <time>2026-08-28T17:25:19Z</time>
  <course>306.29</course>
  <speed>23.747170357749997</speed>
  <fix>3d</fix>
</trkpt>
<trkpt lat="-35.3610415" lon="149.1638837">
  <ele>665.96</ele>
  <time>2026-08-28T17:25:19Z</time>
  <course>304.14</course>
  <speed>23.84</speed>
  <fix>3d</fix>
</trkpt>
<trkpt lat="-35.3609349" lon="149.1636092">
  <ele>666.01</ele>
  <time>2026-08-28T17:25:19Z</time>
  <course>288.03</course>
  <speed>23.10169257868349</speed>
  <fix>3d</fix>
</trkpt>
<trkpt lat="-35.3609455" lon="149.1636549">
  <ele>665.99</ele>
  <time>2026-08-28T17:25:19Z</time>
  <course>288.18</course>
  <speed>23.13</speed>
  <fix>3d</fix>
</trkpt>
<trkpt lat="-35.3609159" lon="149.1633592">
  <ele>665.79</ele>
  <time>2026-08-28T17:25:19Z</time>
  <course>271.11</course>
  <speed>22.632547359941608</speed>
  <fix>3d</fix>
</trkpt>
<trkpt lat="-35.3609149" lon="149.1634062">
  <ele>665.77</ele>
  <time>2026-08-28T17:25:19Z</time>
  <course>270.16</course>
  <speed>22.68</speed>
  <fix>3d</fix>
</trkpt>
<trkpt lat="-35.3609548" lon="149.1631218">
  <ele>664.97</ele>
  <time>2026-08-28T17:25:19Z</time>
  <course>248.61</course>
  <speed>23.139111910356455</speed>
  <fix>3d</fix>
</trkpt>
<trkpt lat="-35.3609424" lon="149.1631609">
  <ele>665.02</ele>
  <time>2026-08-28T17:25:19Z</time>
  <course>250.68</course>
  <speed>22.89</speed>
  <fix>3d</fix>
</trkpt>
<trkpt lat="-35.3610954" lon="149.1629254">
  <ele>665.78</ele>
  <time>2026-08-28T17:25:19Z</time>
  <course>220.94</course>
  <speed>23.36608225612501</speed>
  <fix>3d</fix>
</trkpt>
<trkpt lat="-35.3610644" lon="149.1629558">
  <ele>665.54</ele>
  <time>2026-08-28T17:25:19Z</time>
  <course>220.15</course>
  <speed>23.41</speed>
  <fix>3d</fix>
</trkpt>
<trkpt lat="-35.3612712" lon="149.162805">
  <ele>665.67</ele>
  <time>2026-08-28T17:25:19Z</time>
  <course>204.26</course>
  <speed>22.732905665576496</speed>
  <fix>3d</fix>
</trkpt>
<trkpt lat="-35.3612395" lon="149.1628205">
  <ele>665.67</ele>
  <time>2026-08-28T17:25:19Z</time>
  <course>203.83</course>
  <speed>22.81</speed>
  <fix>3d</fix>
</trkpt>
<trkpt lat="-35.3614745" lon="149.1627596">
  <ele>665.16</ele>
  <time>2026-08-28T17:25:19Z</time>
  <course>184.54</course>
  <speed>22.441873807683706</speed>
  <fix>3d</fix>
</trkpt>
<trkpt lat="-35.3614362" lon="149.1627613">
  <ele>665.14</ele>
  <time>2026-08-28T17:25:19Z</time>
  <course>184.0</course>
  <speed>22.5</speed>
  <fix>3d</fix>
</trkpt>
<trkpt lat="-35.3616679" lon="149.1627834">
  <ele>664.57</ele>
  <time>2026-08-28T17:25:19Z</time>
  <course>171.19</course>
  <speed>22.05087980104195</speed>
  <fix>3d</fix>
</trkpt>
<trkpt lat="-35.361636" lon="149.1627753">
  <ele>664.57</ele>
  <time>2026-08-28T17:25:19Z</time>
  <course>170.21</course>
  <speed>22.17</speed>
  <fix>3d</fix>
</trkpt>
<trkpt lat="-35.361862" lon="149.1628559">
  <ele>663.92</ele>
  <time>2026-08-28T17:25:19Z</time>
  <course>161.1</course>
  <speed>21.985472476160254</speed>
  <fix>3d</fix>
</trkpt>
<trkpt lat="-35.3618273" lon="149.1628392">
  <ele>663.88</ele>
  <time>2026-08-28T17:25:19Z</time>
  <course>160.18</course>
  <speed>22.03</speed>
  <fix>3d</fix>
</trkpt>
<trkpt lat="-35.3620389" lon="149.1629499">
  <ele>663.53</ele>
  <time>2026-08-28T17:25:19Z</time>
  <course>155.83</course>
  <speed>21.972739929285105</speed>
  <fix>3d</fix>
</trkpt>
<trkpt lat="-35.3620098" lon="149.1629326">
  <ele>663.42</ele>
  <time>2026-08-28T17:25:19Z</time>
  <course>155.27</course>
  <speed>22.06</speed>
  <fix>3d</fix>
</trkpt>
<trkpt lat="-35.3622229" lon="149.1630582">
  <ele>663.32</ele>
  <time>2026-08-28T17:25:19Z</time>
  <course>154.24</course>
  <speed>22.21070912870636</speed>
  <fix>3d</fix>
</trkpt>
<trkpt lat="-35.3621893" lon="149.1630379">
  <ele>663.18</ele>
  <time>2026-08-28T17:25:19Z</time>
  <course>154.15</course>
  <speed>22.22</speed>
  <fix>3d</fix>
</trkpt>
<trkpt lat="-35.3624039" lon="149.1631614">
  <ele>663.4</ele>
  <time>2026-08-28T17:25:19Z</time>
  <course>155.29</course>
  <speed>22.31629449527856</speed>
  <fix>3d</fix>
</trkpt>
<trkpt lat="-35.3623705" lon="149.1631429">
  <ele>663.19</ele>
  <time>2026-08-28T17:25:19Z</time>
  <course>155.51</course>
  <speed>22.38</speed>
  <fix>3d</fix>
</trkpt>
<trkpt lat="-35.3625908" lon="149.1632573">
  <ele>663.5</ele>
  <time>2026-08-28T17:25:19Z</time>
  <course>157.59</course>
  <speed>22.501699935782632</speed>
  <fix>3d</fix>
</trkpt>
<trkpt lat="-35.3625557" lon="149.1632405">
  <ele>663.28</ele>
  <time>2026-08-28T17:25:19Z</time>
  <course>158.07</course>
  <speed>22.5</speed>
  <fix>3d</fix>
</trkpt>
<trkpt lat="-35.3627805" lon="149.1633414">
  <ele>663.69</ele>
  <time>2026-08-28T17:25:19Z</time>
  <course>160.51</course>
  <speed>22.528137961225287</speed>
  <fix>3d</fix>
</trkpt>
<trkpt lat="-35.3627454" lon="149.1633273">
  <ele>663.44</ele>
  <time>2026-08-28T17:25:19Z</time>
  <course>161.02</course>
  <speed>22.57</speed>
  <fix>3d</fix>
</trkpt>
<trkpt lat="-35.362976" lon="149.1634147">
  <ele>663.85</ele>
  <time>2026-08-28T17:25:19Z</time>
  <course>163.28</course>
  <speed>22.623936439090347</speed>
  <fix>3d</fix>
</trkpt>
<trkpt lat="-35.3629389" lon="149.1634022">
  <ele>663.6</ele>
  <time>2026-08-28T17:25:19Z</time>
  <course>163.86</course>
  <speed>22.59</speed>
  <fix>3d</fix>
</trkpt>
<trkpt lat="-35.3631717" lon="149.1634765">
  <ele>664.0</ele>
  <time>2026-08-28T17:25:19Z</time>
  <course>165.76</course>
  <speed>22.57984278067498</speed>
  <fix>3d</fix>
</trkpt>
<trkpt lat="-35.363135" lon="149.1634662">
  <ele>663.75</ele>
  <time>2026-08-28T17:25:19Z</time>
  <course>166.27</course>
  <speed>22.6</speed>
  <fix>3d</fix>
</trkpt>
<trkpt lat="-35.3633704" lon="149.1635302">
  <ele>664.08</ele>
  <time>2026-08-28T17:25:19Z</time>
  <course>167.76</course>
  <speed>22.610300749879467</speed>
  <fix>3d</fix>
</trkpt>
<trkpt lat="-35.363333" lon="149.1635211">
  <ele>663.85</ele>
  <time>2026-08-28T17:25:19Z</time>
  <course>168.16</course>
  <speed>22.6</speed>
  <fix>3d</fix>
</trkpt>
<trkpt lat="-35.3635691" lon="149.163577">
  <ele>664.16</ele>
  <time>2026-08-28T17:25:19Z</time>
  <course>169.25</course>
  <speed>22.578939301924702</speed>
  <fix>3d</fix>
</trkpt>
<trkpt lat="-35.3635322" lon="149.163569">
  <ele>663.93</ele>
  <time>2026-08-28T17:25:19Z</time>
  <course>169.53</course>
  <speed>22.6</speed>
  <fix>3d</fix>
</trkpt>
<trkpt lat="-35.36377" lon="149.1636197">
  <ele>664.21</ele>
  <time>2026-08-28T17:25:19Z</time>
  <course>170.23</course>
  <speed>22.632830136772554</speed>
  <fix>3d</fix>
</trkpt>
<trkpt lat="-35.3637323" lon="149.1636122">
  <ele>663.99</ele>
  <time>2026-08-28T17:25:19Z</time>
  <course>170.45</course>
  <speed>22.63</speed>
  <fix>3d</fix>
</trkpt>
<trkpt lat="-35.3639704" lon="149.1636596">
  <ele>664.24</ele>
  <time>2026-08-28T17:25:19Z</time>
  <course>170.82</course>
  <speed>22.607295282717924</speed>
  <fix>3d</fix>
</trkpt>
<trkpt lat="-35.363933" lon="149.1636524">
  <ele>664.06</ele>
  <time>2026-08-28T17:25:19Z</time>
  <course>170.94</course>
  <speed>22.63</speed>
  <fix>3d</fix>
</trkpt>
<trkpt lat="-35.3641719" lon="149.1636983">
  <ele>664.28</ele>
  <time>2026-08-28T17:25:19Z</time>
  <course>170.85</course>
  <speed>22.668709711847296</speed>
  <fix>3d</fix>
</trkpt>
<trkpt lat="-35.364134" lon="149.1636911">
  <ele>664.11</ele>
  <time>2026-08-28T17:25:19Z</time>
  <course>171.13</course>
  <speed>22.65</speed>
  <fix>3d</fix>
</trkpt>
<trkpt lat="-35.3643695" lon="149.1637596">
  <ele>664.12</ele>
  <time>2026-08-28T17:25:19Z</time>
  <course>157.95</course>
  <speed>23.44013651837378</speed>
  <fix>3d</fix>
</trkpt>
<trkpt lat="-35.3643334" lon="149.1637427">
  <ele>664.06</ele>
  <time>2026-08-28T17:25:19Z</time>
  <course>159.86</course>
  <speed>23.07</speed>
  <fix>3d</fix>
</trkpt>
<trkpt lat="-35.3645271" lon="149.1639361">
  <ele>665.65</ele>
  <time>2026-08-28T17:25:19Z</time>
  <course>130.3</course>
  <speed>24.011432693614935</speed>
  <fix>3d</fix>
</trkpt>
<trkpt lat="-35.3645025" lon="149.1638976">
  <ele>665.19</ele>
  <time>2026-08-28T17:25:19Z</time>
  <course>129.12</course>
  <speed>24.05</speed>
  <fix>3d</fix>
</trkpt>
<trkpt lat="-35.3646328" lon="149.1641622">
  <ele>666.08</ele>
  <time>2026-08-28T17:25:19Z</time>
  <course>115.98</course>
  <speed>23.27921819993103</speed>
  <fix>3d</fix>
</trkpt>
<trkpt lat="-35.3646171" lon="149.1641177">
  <ele>666.04</ele>
  <time>2026-08-28T17:25:19Z</time>
  <course>115.57</course>
  <speed>23.33</speed>
  <fix>3d</fix>
</trkpt>
<trkpt lat="-35.3646773" lon="149.1644084">
  <ele>665.85</ele>
  <time>2026-08-28T17:25:19Z</time>
  <course>97.33</course>
  <speed>22.841724978643796</speed>
  <fix>3d</fix>
</trkpt>
<trkpt lat="-35.3646742" lon="149.164361">
  <ele>665.77</ele>
  <time>2026-08-28T17:25:19Z</time>
  <course>96.64</course>
  <speed>22.88</speed>
  <fix>3d</fix>
</trkpt>
<trkpt lat="-35.3646597" lon="149.1646569">
  <ele>665.22</ele>
  <time>2026-08-28T17:25:19Z</time>
  <course>76.08</course>
  <speed>23.150449239701594</speed>
  <fix>3d</fix>
</trkpt>
<trkpt lat="-35.3646691" lon="149.1646104">
  <ele>665.26</ele>
  <time>2026-08-28T17:25:19Z</time>
  <course>78.33</course>
  <speed>22.87</speed>
  <fix>3d</fix>
</trkpt>
<trkpt lat="-35.3645433" lon="149.1648676">
  <ele>665.87</ele>
  <time>2026-08-28T17:25:19Z</time>
  <course>47.04</course>
  <speed>23.44991684420224</speed>
  <fix>3d</fix>
</trkpt>
<trkpt lat="-35.3645708" lon="149.1648337">
  <ele>665.56</ele>
  <time>2026-08-28T17:25:19Z</time>
  <course>46.86</course>
  <speed>23.5</speed>
  <fix>3d</fix>
</trkpt>
<trkpt lat="-35.3643727" lon="149.1650128">
  <ele>665.88</ele>
  <time>2026-08-28T17:25:19Z</time>
  <course>29.54</course>
  <speed>22.868425831263508</speed>
  <fix>3d</fix>
</trkpt>
<trkpt lat="-35.3644069" lon="149.1649913">
  <ele>665.86</ele>
  <time>2026-08-28T17:25:19Z</time>
  <course>29.47</course>
  <speed>22.94</speed>
  <fix>3d</fix>
</trkpt>
<trkpt lat="-35.3641818" lon="149.1650781">
  <ele>665.4</ele>
  <time>2026-08-28T17:25:19Z</time>
  <course>9.51</course>
  <speed>22.511721391310793</speed>
  <fix>3d</fix>
</trkpt>
<trkpt lat="-35.3642151" lon="149.1650733">
  <ele>665.32</ele>
  <time>2026-08-28T17:25:19Z</time>
  <course>8.91</course>
  <speed>22.59</speed>
  <fix>3d</fix>
</trkpt>
<trkpt lat="-35.3639771" lon="149.1650701">
  <ele>664.71</ele>
  <time>2026-08-28T17:25:19Z</time>
  <course>354.29</course>
  <speed>22.15974954732115</speed>
  <fix>3d</fix>
</trkpt>
<trkpt lat="-35.3640144" lon="149.1650769">
  <ele>664.73</ele>
  <time>2026-08-28T17:25:19Z</time>
  <course>353.59</course>
  <speed>22.21</speed>
  <fix>3d</fix>
</trkpt>
<trkpt lat="-35.3637901" lon="149.1650101">
  <ele>664.08</ele>
  <time>2026-08-28T17:25:19Z</time>
  <course>343.2</course>
  <speed>21.959483145101572</speed>
  <fix>3d</fix>
</trkpt>
<trkpt lat="-35.3638209" lon="149.1650235">
  <ele>664.02</ele>
  <time>2026-08-28T17:25:19Z</time>
  <course>342.02</course>
  <speed>22.05</speed>
  <fix>3d</fix>
</trkpt>
<trkpt lat="-35.3636032" lon="149.1649152">
  <ele>663.51</ele>
  <time>2026-08-28T17:25:20Z</time>
  <course>336.41</course>
  <speed>21.993064815982333</speed>
  <fix>3d</fix>
</trkpt>
<trkpt lat="-35.3636368" lon="149.1649348">
  <ele>663.43</ele>
  <time>2026-08-28T17:25:20Z</time>
  <course>335.76</course>
  <speed>22.04</speed>
  <fix>3d</fix>
</trkpt>
<trkpt lat="-35.3634289" lon="149.1648122">
  <ele>663.3</ele>
  <time>2026-08-28T17:25:20Z</time>
  <course>334.0</course>
  <speed>22.088499269982105</speed>
  <fix>3d</fix>
</trkpt>
<trkpt lat="-35.3634577" lon="149.16483">
  <ele>663.14</ele>
  <time>2026-08-28T17:25:20Z</time>
  <course>333.89</course>
  <speed>22.16</speed>
  <fix>3d</fix>
</trkpt>
<trkpt lat="-35.3632434" lon="149.1647039">
  <ele>663.24</ele>
  <time>2026-08-28T17:25:20Z</time>
  <course>334.66</course>
  <speed>22.351252761310715</speed>
  <fix>3d</fix>
</trkpt>
<trkpt lat="-35.3632774" lon="149.1647234">
  <ele>663.05</ele>
  <time>2026-08-28T17:25:20Z</time>
  <course>334.97</course>
  <speed>22.35</speed>
  <fix>3d</fix>
</trkpt>
<trkpt lat="-35.3630628" lon="149.1646084">
  <ele>663.42</ele>
  <time>2026-08-28T17:25:20Z</time>
  <course>336.78</course>
  <speed>22.43391405885295</speed>
  <fix>3d</fix>
</trkpt>
<trkpt lat="-35.3630934" lon="149.1646237">
  <ele>663.18</ele>
  <time>2026-08-28T17:25:20Z</time>
  <course>337.5</course>
  <speed>22.47</speed>
  <fix>3d</fix>
</trkpt>
<trkpt lat="-35.3628681" lon="149.1645193">
  <ele>663.54</ele>
  <time>2026-08-28T17:25:20Z</time>
  <course>339.95</course>
  <speed>22.6106390887122</speed>
  <fix>3d</fix>
</trkpt>
<trkpt lat="-35.3629045" lon="149.1645346">
  <ele>663.32</ele>
  <time>2026-08-28T17:25:20Z</time>
  <course>340.52</course>
  <speed>22.57</speed>
  <fix>3d</fix>
</trkpt>
<trkpt lat="-35.3626792" lon="149.1644473">
  <ele>663.75</ele>
  <time>2026-08-28T17:25:20Z</time>
  <course>342.97</course>
  <speed>22.565743949624174</speed>
  <fix>3d</fix>
</trkpt>
<trkpt lat="-35.3627114" lon="149.1644584">
  <ele>663.57</ele>
  <time>2026-08-28T17:25:20Z</time>
  <course>343.68</course>
  <speed>22.58</speed>
  <fix>3d</fix>
</trkpt>
<trkpt lat="-35.3624778" lon="149.1643837">
  <ele>663.9</ele>
  <time>2026-08-28T17:25:20Z</time>
  <course>345.84</course>
  <speed>22.634367673959883</speed>
  <fix>3d</fix>
</trkpt>
<trkpt lat="-35.3625151" lon="149.1643942">
  <ele>663.73</ele>
  <time>2026-08-28T17:25:20Z</time>
  <course>346.41</course>
  <speed>22.61</speed>
  <fix>3d</fix>
</trkpt>
<trkpt lat="-35.3622804" lon="149.1643318">
  <ele>664.04</ele>
  <time>2026-08-28T17:25:20Z</time>
  <course>348.05</course>
  <speed>22.571178524835606</speed>
  <fix>3d</fix>
</trkpt>
<trkpt lat="-35.362317" lon="149.1643404">
  <ele>663.89</ele>
  <time>2026-08-28T17:25:20Z</time>
  <course>348.52</course>
  <speed>22.59</speed>
  <fix>3d</fix>
</trkpt>
<trkpt lat="-35.3620793" lon="149.1642866">
  <ele>664.14</ele>
  <time>2026-08-28T17:25:20Z</time>
  <course>349.79</course>
  <speed>22.63948983524143</speed>
  <fix>3d</fix>
</trkpt>
<trkpt lat="-35.3621173" lon="149.1642944">
  <ele>663.98</ele>
  <time>2026-08-28T17:25:20Z</time>
  <course>350.09</course>
  <speed>22.61</speed>
  <fix>3d</fix>
</trkpt>
<trkpt lat="-35.3618799" lon="149.164247">
  <ele>664.21</ele>
  <time>2026-08-28T17:25:20Z</time>
  <course>350.79</course>
  <speed>22.575176632753063</speed>
  <fix>3d</fix>
</trkpt>
<trkpt lat="-35.361917" lon="149.164254">
  <ele>664.07</ele>
  <time>2026-08-28T17:25:20Z</time>
  <course>351.07</course>
  <speed>22.6</speed>
  <fix>3d</fix>
</trkpt>
<trkpt lat="-35.3616781" lon="149.16421">
  <ele>664.28</ele>
  <time>2026-08-28T17:25:20Z</time>
  <course>351.46</course>
  <speed>22.635980208508755</speed>
  <fix>3d</fix>
</trkpt>
<trkpt lat="-35.3617162" lon="149.1642168">
  <ele>664.13</ele>
  <time>2026-08-28T17:25:20Z</time>
  <course>351.66</course>
  <speed>22.61</speed>
  <fix>3d</fix>
</trkpt>
<trkpt lat="-35.3614778" lon="149.1641745">
  <ele>664.32</ele>
  <time>2026-08-28T17:25:20Z</time>
  <course>351.77</course>
  <speed>22.596305007677692</speed>
  <fix>3d</fix>
</trkpt>
<trkpt lat="-35.3615151" lon="149.1641811">
  <ele>664.19</ele>
  <time>2026-08-28T17:25:20Z</time>
  <course>351.86</course>
  <speed>22.63</speed>
  <fix>3d</fix>
</trkpt>
<trkpt lat="-35.3612769" lon="149.1641329">
  <ele>663.88</ele>
  <time>2026-08-28T17:25:20Z</time>
  <course>347.26</course>
  <speed>22.78897321074383</speed>
  <fix>3d</fix>
</trkpt>
<trkpt lat="-35.3613143" lon="149.1641432">
  <ele>663.97</ele>
  <time>2026-08-28T17:25:20Z</time>
  <course>348.05</course>
  <speed>22.66</speed>
  <fix>3d</fix>
</trkpt>
<trkpt lat="-35.3611052" lon="149.1639854">
  <ele>664.08</ele>
  <time>2026-08-28T17:25:20Z</time>
  <course>307.48</course>
  <speed>24.423891991244968</speed>
  <fix>3d</fix>
</trkpt>
<trkpt lat="-35.361131" lon="149.1640229">
  <ele>663.64</ele>
  <time>2026-08-28T17:25:20Z</time>
  <course>310.88</course>
  <speed>24.42</speed>
  <fix>3d</fix>
</trkpt>
<trkpt lat="-35.3610189" lon="149.1637367">
  <ele>666.09</ele>
  <time>2026-08-28T17:25:20Z</time>
  <course>288.52</course>
  <speed>24.326462957035083</speed>
  <fix>3d</fix>
</trkpt>
<trkpt lat="-35.3610304" lon="149.1637852">
  <ele>665.89</ele>
  <time>2026-08-28T17:25:20Z</time>
  <course>288.09</course>
  <speed>24.34</speed>
  <fix>3d</fix>
</trkpt>
<trkpt lat="-35.3610092" lon="149.1634763">
  <ele>666.46</ele>
  <time>2026-08-28T17:25:20Z</time>
  <course>264.23</course>
  <speed>23.576651585838054</speed>
  <fix>3d</fix>
</trkpt>
<trkpt lat="-35.3610043" lon="149.163525">
  <ele>666.42</ele>
  <time>2026-08-28T17:25:20Z</time>
  <course>264.94</course>
  <speed>23.58</speed>
  <fix>3d</fix>
</trkpt>
<trkpt lat="-35.3610861" lon="149.1632409">
  <ele>666.08</ele>
  <time>2026-08-28T17:25:20Z</time>
  <course>240.42</course>
  <speed>23.034066076140356</speed>
  <fix>3d</fix>
</trkpt>
<trkpt lat="-35.3610657" lon="149.1632818">
  <ele>666.16</ele>
  <time>2026-08-28T17:25:20Z</time>
  <course>240.77</course>
  <speed>23.03</speed>
  <fix>3d</fix>
</trkpt>
<trkpt lat="-35.3612295" lon="149.1630634">
  <ele>664.78</ele>
  <time>2026-08-28T17:25:20Z</time>
  <course>217.84</course>
  <speed>22.673777806091334</speed>
  <fix>3d</fix>
</trkpt>
<trkpt lat="-35.3611983" lon="149.1630916">
  <ele>664.99</ele>
  <time>2026-08-28T17:25:20Z</time>
  <course>218.16</course>
  <speed>22.7</speed>
  <fix>3d</fix>
</trkpt>
<trkpt lat="-35.3614118" lon="149.1629623">
  <ele>662.87</ele>
  <time>2026-08-28T17:25:20Z</time>
  <course>199.43</course>
  <speed>22.17166885915447</speed>
  <fix>3d</fix>
</trkpt>
<trkpt lat="-35.3613759" lon="149.1629757">
  <ele>663.16</ele>
  <time>2026-08-28T17:25:20Z</time>
  <course>198.84</course>
  <speed>22.26</speed>
  <fix>3d</fix>
</trkpt>
<trkpt lat="-35.3616069" lon="149.1629265">
  <ele>660.53</ele>
  <time>2026-08-28T17:25:20Z</time>
  <course>185.15</course>
  <speed>21.87320735511827</speed>
  <fix>3d</fix>
</trkpt>
<trkpt lat="-35.36157" lon="149.1629286">
  <ele>660.85</ele>
  <time>2026-08-28T17:25:20Z</time>
  <course>184.3</course>
  <speed>21.95</speed>
  <fix>3d</fix>
</trkpt>
<trkpt lat="-35.3618026" lon="149.162937">
  <ele>658.3</ele>
  <time>2026-08-28T17:25:20Z</time>
  <course>175.52</course>
  <speed>21.88556601963952</speed>
  <fix>3d</fix>
</trkpt>
<trkpt lat="-35.3617666" lon="149.1629319">
  <ele>658.56</ele>
  <time>2026-08-28T17:25:20Z</time>
  <course>174.85</course>
  <speed>21.95</speed>
  <fix>3d</fix>
</trkpt>
<trkpt lat="-35.3619988" lon="149.1629738">
  <ele>656.49</ele>
  <time>2026-08-28T17:25:20Z</time>
  <course>171.0</course>
  <speed>22.083862886732476</speed>
  <fix>3d</fix>
</trkpt>
<trkpt lat="-35.3619628" lon="149.1629656">
  <ele>656.66</ele>
  <time>2026-08-28T17:25:20Z</time>
  <course>170.4</course>
  <speed>22.15</speed>
  <fix>3d</fix>
</trkpt>
<trkpt lat="-35.3621966" lon="149.1630079">
  <ele>655.0</ele>
  <time>2026-08-28T17:25:20Z</time>
  <course>172.68</course>
  <speed>22.33084190083303</speed>
  <fix>3d</fix>
</trkpt>
<trkpt lat="-35.3621603" lon="149.1630025">
  <ele>655.13</ele>
  <time>2026-08-28T17:25:20Z</time>
  <course>173.09</course>
  <speed>22.35</speed>
  <fix>3d</fix>
</trkpt>
<trkpt lat="-35.3623998" lon="149.1630199">
  <ele>653.8</ele>
  <time>2026-08-28T17:25:20Z</time>
  <course>178.43</course>
  <speed>22.621069824391594</speed>
  <fix>3d</fix>
</trkpt>
<trkpt lat="-35.3623618" lon="149.1630196">
  <ele>653.89</ele>
  <time>2026-08-28T17:25:20Z</time>
  <course>179.22</course>
  <speed>22.59</speed>
  <fix>3d</fix>
</trkpt>
<trkpt lat="-35.3625984" lon="149.1630025">
  <ele>652.74</ele>
  <time>2026-08-28T17:25:20Z</time>
  <course>185.11</course>
  <speed>22.683952477467415</speed>
  <fix>3d</fix>
</trkpt>
<trkpt lat="-35.3625648" lon="149.1630077">
  <ele>652.79</ele>
  <time>2026-08-28T17:25:20Z</time>
  <course>186.26</course>
  <speed>22.68</speed>
  <fix>3d</fix>
</trkpt>
<trkpt lat="-35.3628032" lon="149.162954">
  <ele>651.53</ele>
  <time>2026-08-28T17:25:20Z</time>
  <course>192.06</course>
  <speed>22.708960786438464</speed>
  <fix>3d</fix>
</trkpt>
<trkpt lat="-35.3627657" lon="149.1629655">
  <ele>651.62</ele>
  <time>2026-08-28T17:25:20Z</time>
  <course>193.07</course>
  <speed>22.67</speed>
  <fix>3d</fix>
</trkpt>
<trkpt lat="-35.3629924" lon="149.1628825">
  <ele>650.26</ele>
  <time>2026-08-28T17:25:20Z</time>
  <course>196.5</course>
  <speed>22.52983133536512</speed>
  <fix>3d</fix>
</trkpt>
<trkpt lat="-35.3629609" lon="149.1628964">
  <ele>650.36</ele>
  <time>2026-08-28T17:25:20Z</time>
  <course>198.84</course>
  <speed>22.57</speed>
  <fix>3d</fix>
</trkpt>
<trkpt lat="-35.3631923" lon="149.162817">
  <ele>647.89</ele>
  <time>2026-08-28T17:25:20Z</time>
  <course>190.8</course>
  <speed>22.834609696686297</speed>
  <fix>3d</fix>
</trkpt>
<trkpt lat="-35.3631544" lon="149.162826">
  <ele>648.29</ele>
  <time>2026-08-28T17:25:20Z</time>
  <course>190.61</course>
  <speed>22.63</speed>
  <fix>3d</fix>
</trkpt>
<trkpt lat="-35.363394" lon="149.1628179">
  <ele>645.72</ele>
  <time>2026-08-28T17:25:20Z</time>
  <course>176.76</course>
  <speed>23.070251407386095</speed>
  <fix>3d</fix>
</trkpt>
<trkpt lat="-35.3633601" lon="149.1628149">
  <ele>645.98</ele>
  <time>2026-08-28T17:25:20Z</time>
  <course>175.63</course>
  <speed>23.12</speed>
  <fix>3d</fix>
</trkpt>
<trkpt lat="-35.3636005" lon="149.1628764">
  <ele>643.85</ele>
  <time>2026-08-28T17:25:20Z</time>
  <course>164.05</course>
  <speed>22.86081582096317</speed>
  <fix>3d</fix>
</trkpt>
<trkpt lat="-35.3635634" lon="149.162862">
  <ele>644.06</ele>
  <time>2026-08-28T17:25:20Z</time>
  <course>163.14</course>
  <speed>22.92</speed>
  <fix>3d</fix>
</trkpt>
<trkpt lat="-35.3637827" lon="149.1629707">
  <ele>642.51</ele>
  <time>2026-08-28T17:25:20Z</time>
  <course>155.75</course>
  <speed>22.35627205059019</speed>
  <fix>3d</fix>
</trkpt>
<trkpt lat="-35.3637529" lon="149.1629528">
  <ele>642.66</ele>
  <time>2026-08-28T17:25:20Z</time>
  <course>154.82</course>
  <speed>22.45</speed>
  <fix>3d</fix>
</trkpt>
<trkpt lat="-35.3639615" lon="149.1630929">
  <ele>641.36</ele>
  <time>2026-08-28T17:25:20Z</time>
  <course>149.93</course>
  <speed>22.194875534681422</speed>
  <fix>3d</fix>
</trkpt>
<trkpt lat="-35.3639297" lon="149.1630688">
  <ele>641.47</ele>
  <time>2026-08-28T17:25:20Z</time>
  <course>149.3</course>
  <speed>22.21</speed>
  <fix>3d</fix>
</trkpt>
<trkpt lat="-35.3641281" lon="149.1632245">
  <ele>640.5</ele>
  <time>2026-08-28T17:25:20Z</time>
  <course>146.78</course>
  <speed>22.14935664979911</speed>
  <fix>3d</fix>
</trkpt>
<trkpt lat="-35.3640981" lon="149.1631994">
  <ele>640.57</ele>
  <time>2026-08-28T17:25:20Z</time>
  <course>146.48</course>
  <speed>22.18</speed>
  <fix>3d</fix>
</trkpt>
<trkpt lat="-35.3642944" lon="149.1633632">
  <ele>639.94</ele>
  <time>2026-08-28T17:25:20Z</time>
  <course>145.66</course>
  <speed>22.281584324279994</speed>
  <fix>3d</fix>
</trkpt>
<trkpt lat="-35.3642634" lon="149.1633367">
  <ele>639.93</ele>
  <time>2026-08-28T17:25:20Z</time>
  <course>145.59</course>
  <speed>22.26</speed>
  <fix>3d</fix>
</trkpt>
<trkpt lat="-35.3644594" lon="149.1635008">
  <ele>639.57</ele>
  <time>2026-08-28T17:25:20Z</time>
  <course>145.85</course>
  <speed>22.3186245095884</speed>
  <fix>3d</fix>
</trkpt>
<trkpt lat="-35.3644288" lon="149.1634752">
  <ele>639.52</ele>
  <time>2026-08-28T17:25:20Z</time>
  <course>145.89</course>
  <speed>22.35</speed>
  <fix>3d</fix>
</trkpt>
<trkpt lat="-35.3646285" lon="149.1636372">
  <ele>639.32</ele>
  <time>2026-08-28T17:25:20Z</time>
  <course>146.89</course>
  <speed>22.479902135018293</speed>
  <fix>3d</fix>
</trkpt>
<trkpt lat="-35.3645964" lon="149.1636118">
  <ele>639.24</ele>
  <time>2026-08-28T17:25:20Z</time>
  <course>147.02</course>
  <speed>22.44</speed>
  <fix>3d</fix>
</trkpt>
<trkpt lat="-35.3647991" lon="149.163768">
  <ele>639.19</ele>
  <time>2026-08-28T17:25:20Z</time>
  <course>148.17</course>
  <speed>22.495877400092667</speed>
  <fix>3d</fix>
</trkpt>
<trkpt lat="-35.3647672" lon="149.1637442">
  <ele>639.11</ele>
  <time>2026-08-28T17:25:20Z</time>
  <course>148.39</course>
  <speed>22.51</speed>
  <fix>3d</fix>
</trkpt>
<trkpt lat="-35.3649737" lon="149.1638952">
  <ele>639.15</ele>
  <time>2026-08-28T17:25:21Z</time>
  <course>149.49</course>
  <speed>22.56348598953628</speed>
  <fix>3d</fix>
</trkpt>
<trkpt lat="-35.3649407" lon="149.1638719">
  <ele>639.06</ele>
  <time>2026-08-28T17:25:21Z</time>
  <course>149.66</course>
  <speed>22.55</speed>
  <fix>3d</fix>
</trkpt>
<trkpt lat="-35.3651499" lon="149.1640174">
  <ele>639.15</ele>
  <time>2026-08-28T17:25:21Z</time>
  <course>150.06</course>
  <speed>22.56212977535587</speed>
  <fix>3d</fix>
</trkpt>
<trkpt lat="-35.3651168" lon="149.1639951">
  <ele>639.05</ele>
  <time>2026-08-28T17:25:21Z</time>
  <course>150.89</course>
  <speed>22.58</speed>
  <fix>3d</fix>
</trkpt>
<trkpt lat="-35.3653163" lon="149.164163">
  <ele>638.94</ele>
  <time>2026-08-28T17:25:21Z</time>
  <course>135.83</course>
  <speed>23.518301384241166</speed>
  <fix>3d</fix>
</trkpt>
<trkpt lat="-35.3652876" lon="149.1641302">
  <ele>638.89</ele>
  <time>2026-08-28T17:25:21Z</time>
  <course>137.93</course>
  <speed>23.13</speed>
  <fix>3d</fix>
</trkpt>
<trkpt lat="-35.365416" lon="149.1643929">
  <ele>640.34</ele>
  <time>2026-08-28T17:25:21Z</time>
  <course>113.65</course>
  <speed>23.729072885386824</speed>
  <fix>3d</fix>
</trkpt>
<trkpt lat="-35.3654017" lon="149.1643478">
  <ele>640.03</ele>
  <time>2026-08-28T17:25:21Z</time>
  <course>111.44</course>
  <speed>23.79</speed>
  <fix>3d</fix>
</trkpt>
<trkpt lat="-35.3654655" lon="149.164643">
  <ele>639.86</ele>
  <time>2026-08-28T17:25:21Z</time>
  <course>99.93</course>
  <speed>23.152133810947102</speed>
  <fix>3d</fix>
</trkpt>
<trkpt lat="-35.3654602" lon="149.1645959">
  <ele>639.96</ele>
  <time>2026-08-28T17:25:21Z</time>
  <course>99.4</course>
  <speed>23.17</speed>
  <fix>3d</fix>
</trkpt>
<trkpt lat="-35.3654568" lon="149.1648952">
  <ele>638.67</ele>
  <time>2026-08-28T17:25:21Z</time>
  <course>83.62</course>
  <speed>22.82676718241109</speed>
  <fix>3d</fix>
</trkpt>
<trkpt lat="-35.3654628" lon="149.1648487">
  <ele>638.83</ele>
  <time>2026-08-28T17:25:21Z</time>
  <course>82.52</course>
  <speed>22.88</speed>
  <fix>3d</fix>
</trkpt>
<trkpt lat="-35.3654011" lon="149.1651342">
  <ele>636.71</ele>
  <time>2026-08-28T17:25:21Z</time>
  <course>71.58</course>
  <speed>22.48587334305697</speed>
  <fix>3d</fix>
</trkpt>
<trkpt lat="-35.3654147" lon="149.165091">
  <ele>637.04</ele>
  <time>2026-08-28T17:25:21Z</time>
  <course>70.47</course>
  <speed>22.5</speed>
  <fix>3d</fix>
</trkpt>
<trkpt lat="-35.3653108" lon="149.1653553">
  <ele>634.38</ele>
  <time>2026-08-28T17:25:21Z</time>
  <course>61.8</course>
  <speed>22.506188037959692</speed>
  <fix>3d</fix>
</trkpt>
<trkpt lat="-35.3653302" lon="149.1653151">
  <ele>634.74</ele>
  <time>2026-08-28T17:25:21Z</time>
  <course>60.64</course>
  <speed>22.45</speed>
  <fix>3d</fix>
</trkpt>
<trkpt lat="-35.3652014" lon="149.1655469">
  <ele>630.02</ele>
  <time>2026-08-28T17:25:21Z</time>
  <course>48.55</course>
  <speed>20.697045682898803</speed>
  <fix>3d</fix>
</trkpt>
<trkpt lat="-35.3652243" lon="149.1655155">
  <ele>630.86</ele>
  <time>2026-08-28T17:25:21Z</time>
  <course>49.95</course>
  <speed>20.58</speed>
  <fix>3d</fix>
</trkpt>
<trkpt lat="-35.3650373" lon="149.1656722">
  <ele>625.86</ele>
  <time>2026-08-28T17:25:21Z</time>
  <course>26.09</course>
  <speed>22.428597816181018</speed>
  <fix>3d</fix>
</trkpt>
<trkpt lat="-35.3650708" lon="149.1656539">
  <ele>626.55</ele>
  <time>2026-08-28T17:25:21Z</time>
  <course>25.3</course>
  <speed>22.13</speed>
  <fix>3d</fix>
</trkpt>
<trkpt lat="-35.3648303" lon="149.1657146">
  <ele>623.65</ele>
  <time>2026-08-28T17:25:21Z</time>
  <course>359.55</course>
  <speed>23.795178082964625</speed>
  <fix>3d</fix>
</trkpt>
<trkpt lat="-35.3648698" lon="149.1657159">
  <ele>623.65</ele>
  <time>2026-08-28T17:25:21Z</time>
  <course>0.59</course>
  <speed>24.03</speed>
  <fix>3d</fix>
</trkpt>
<trkpt lat="-35.3646341" lon="149.165686">
  <ele>622.63</ele>
  <time>2026-08-28T17:25:21Z</time>
  <course>356.3</course>
  <speed>19.964092766765035</speed>
  <fix>3d</fix>
</trkpt>
<trkpt lat="-35.3646685" lon="149.1656925">
  <ele>623.25</ele>
  <time>2026-08-28T17:25:21Z</time>
  <course>353.79</course>
  <speed>20.54</speed>
  <fix>3d</fix>
</trkpt>
<trkpt lat="-35.3644649" lon="149.165653">
  <ele>617.27</ele>
  <time>2026-08-28T17:25:21Z</time>
  <course>348.71</course>
  <speed>20.084645876888146</speed>
  <fix>3d</fix>
</trkpt>
<trkpt lat="-35.3644934" lon="149.1656621">
  <ele>618.01</ele>
  <time>2026-08-28T17:25:21Z</time>
  <course>347.91</course>
  <speed>19.9</speed>
  <fix>3d</fix>
</trkpt>
<trkpt lat="-35.3642825" lon="149.16559">
  <ele>611.76</ele>
  <time>2026-08-28T17:25:21Z</time>
  <course>343.85</course>
  <speed>20.51416096261312</speed>
  <fix>3d</fix>
</trkpt>
<trkpt lat="-35.3643154" lon="149.1656034">
  <ele>612.71</ele>
  <time>2026-08-28T17:25:21Z</time>
  <course>343.15</course>
  <speed>20.61</speed>
  <fix>3d</fix>
</trkpt>
<trkpt lat="-35.3641105" lon="149.1655223">
  <ele>605.74</ele>
  <time>2026-08-28T17:25:21Z</time>
  <course>341.86</course>
  <speed>20.915305400591215</speed>
  <fix>3d</fix>
</trkpt>
<trkpt lat="-35.3641393" lon="149.1655346">
  <ele>606.6</ele>
  <time>2026-08-28T17:25:21Z</time>
  <course>341.67</course>
  <speed>20.85</speed>
  <fix>3d</fix>
</trkpt>
<trkpt lat="-35.3639264" lon="149.1654486">
  <ele>600.72</ele>
  <time>2026-08-28T17:25:21Z</time>
  <course>341.9</course>
  <speed>20.670694231205683</speed>
  <fix>3d</fix>
</trkpt>
<trkpt lat="-35.3639599" lon="149.1654618">
  <ele>601.54</ele>
  <time>2026-08-28T17:25:21Z</time>
  <course>342.08</course>
  <speed>20.83</speed>
  <fix>3d</fix>
</trkpt>
<trkpt lat="-35.363759" lon="149.1653866">
  <ele>595.99</ele>
  <time>2026-08-28T17:25:21Z</time>
  <course>343.47</course>
  <speed>18.834914387912676</speed>
  <fix>3d</fix>
</trkpt>
<trkpt lat="-35.3637863" lon="149.1653961">
  <ele>596.71</ele>
  <time>2026-08-28T17:25:21Z</time>
  <course>343.72</course>
  <speed>19.24</speed>
  <fix>3d</fix>
</trkpt>
<trkpt lat="-35.3636" lon="149.1653349">
  <ele>591.95</ele>
  <time>2026-08-28T17:25:21Z</time>
  <course>345.89</course>
  <speed>16.978271407890734</speed>
  <fix>3d</fix>
</trkpt>
<trkpt lat="-35.3636286" lon="149.1653433">
  <ele>592.48</ele>
  <time>2026-08-28T17:25:21Z</time>
  <course>345.9</course>
  <speed>17.31</speed>
  <fix>3d</fix>
</trkpt>
<trkpt lat="-35.3634632" lon="149.1652975">
  <ele>589.51</ele>
  <time>2026-08-28T17:25:21Z</time>
  <course>348.1</course>
  <speed>15.140198149297783</speed>
  <fix>3d</fix>
</trkpt>
<trkpt lat="-35.3634854" lon="149.1653028">
  <ele>589.86</ele>
  <time>2026-08-28T17:25:21Z</time>
  <course>348.11</course>
  <speed>15.45</speed>
  <fix>3d</fix>
</trkpt>
<trkpt lat="-35.363333" lon="149.1652679">
  <ele>587.81</ele>
  <time>2026-08-28T17:25:21Z</time>
  <course>350.21</course>
  <speed>13.584288718957648</speed>
  <fix>3d</fix>
</trkpt>
<trkpt lat="-35.3633557" lon="149.1652724">
  <ele>587.99</ele>
  <time>2026-08-28T17:25:21Z</time>
  <course>350.13</course>
  <speed>13.91</speed>
  <fix>3d</fix>
</trkpt>
<trkpt lat="-35.3632197" lon="149.1652463">
  <ele>586.99</ele>
  <time>2026-08-28T17:25:21Z</time>
  <course>351.86</course>
  <speed>11.96570516100075</speed>
  <fix>3d</fix>
</trkpt>
<trkpt lat="-35.3632393" lon="149.1652496">
  <ele>587.01</ele>
  <time>2026-08-28T17:25:21Z</time>
  <course>351.71</course>
  <speed>12.32</speed>
  <fix>3d</fix>
</trkpt>
<trkpt lat="-35.3631188" lon="149.16523">
  <ele>586.62</ele>
  <time>2026-08-28T17:25:21Z</time>
  <course>353.01</course>
  <speed>10.508249140556195</speed>
  <fix>3d</fix>
</trkpt>
<trkpt lat="-35.3631366" lon="149.1652326">
  <ele>586.57</ele>
  <time>2026-08-28T17:25:21Z</time>
  <course>352.83</course>
  <speed>10.78</speed>
  <fix>3d</fix>
</trkpt>
<trkpt lat="-35.3630313" lon="149.1652174">
  <ele>586.4</ele>
  <time>2026-08-28T17:25:21Z</time>
  <course>353.86</course>
  <speed>9.154780172128657</speed>
  <fix>3d</fix>
</trkpt>
<trkpt lat="-35.3630465" lon="149.1652195">
  <ele>586.31</ele>
  <time>2026-08-28T17:25:21Z</time>
  <course>353.64</course>
  <speed>9.42</speed>
  <fix>3d</fix>
</trkpt>
<trkpt lat="-35.3629544" lon="149.1652075">
  <ele>586.26</ele>
  <time>2026-08-28T17:25:21Z</time>
  <course>354.43</course>
  <speed>7.971260878932517</speed>
  <fix>3d</fix>
</trkpt>
<trkpt lat="-35.3629679" lon="149.1652092">
  <ele>586.15</ele>
  <time>2026-08-28T17:25:21Z</time>
  <course>354.17</course>
  <speed>8.19</speed>
  <fix>3d</fix>
</trkpt>
<trkpt lat="-35.3628875" lon="149.1651994">
  <ele>585.92</ele>
  <time>2026-08-28T17:25:21Z</time>
  <course>354.75</course>
  <speed>7.13344937600317</speed>
  <fix>3d</fix>
</trkpt>
<trkpt lat="-35.3628992" lon="149.1652009">
  <ele>585.88</ele>
  <time>2026-08-28T17:25:21Z</time>
  <course>354.46</course>
  <speed>7.26</speed>
  <fix>3d</fix>
</trkpt>
<trkpt lat="-35.3628228" lon="149.1651919">
  <ele>584.7</ele>
  <time>2026-08-28T17:25:21Z</time>
  <course>354.89</course>
  <speed>7.443937130309471</speed>
  <fix>3d</fix>
</trkpt>
<trkpt lat="-35.362835" lon="149.1651934">
  <ele>584.84</ele>
  <time>2026-08-28T17:25:21Z</time>
  <course>354.58</course>
  <speed>7.32</speed>
  <fix>3d</fix>
</trkpt>
<trkpt lat="-35.362758" lon="149.1651845">
  <ele>583.84</ele>
  <time>2026-08-28T17:25:21Z</time>
  <course>354.91</course>
  <speed>6.187244944238106</speed>
  <fix>3d</fix>
</trkpt>
<trkpt lat="-35.3627687" lon="149.1651858">
  <ele>583.71</ele>
  <time>2026-08-28T17:25:21Z</time>
  <course>354.72</course>
  <speed>6.64</speed>
  <fix>3d</fix>
</trkpt>
<trkpt lat="-35.3627121" lon="149.1651793">
  <ele>583.71</ele>
  <time>2026-08-28T17:25:21Z</time>
  <course>354.94</course>
  <speed>4.228959682948042</speed>
  <fix>3d</fix>
</trkpt>
<trkpt lat="-35.3627194" lon="149.1651801">
  <ele>583.56</ele>
  <time>2026-08-28T17:25:21Z</time>
  <course>354.7</course>
  <speed>4.55</speed>
  <fix>3d</fix>
</trkpt>
<trkpt lat="-35.3626802" lon="149.1651756">
  <ele>583.6</ele>
  <time>2026-08-28T17:25:21Z</time>
  <course>354.95</course>
  <speed>2.9533032353620583</speed>
  <fix>3d</fix>
</trkpt>
<trkpt lat="-35.3626851" lon="149.1651762">
  <ele>583.45</ele>
  <time>2026-08-28T17:25:21Z</time>
  <course>354.71</course>
  <speed>3.19</speed>
  <fix>3d</fix>
</trkpt>
<trkpt lat="-35.3626575" lon="149.1651731">
  <ele>583.54</ele>
  <time>2026-08-28T17:25:21Z</time>
  <course>354.96</course>
  <speed>2.0995475703112803</speed>
  <fix>3d</fix>
</trkpt>
<trkpt lat="-35.3626609" lon="149.1651735">
  <ele>583.38</ele>
  <time>2026-08-28T17:25:21Z</time>
  <course>354.71</course>
  <speed>2.27</speed>
  <fix>3d</fix>
</trkpt>
<trkpt lat="-35.3626412" lon="149.1651713">
  <ele>583.47</ele>
  <time>2026-08-28T17:25:21Z</time>
  <course>354.97</course>
  <speed>1.5164761785138596</speed>
  <fix>3d</fix>
</trkpt>
<trkpt lat="-35.3626435" lon="149.1651716">
  <ele>583.32</ele>
  <time>2026-08-28T17:25:21Z</time>
  <course>354.71</course>
  <speed>1.64</speed>
  <fix>3d</fix>
</trkpt>
<trkpt lat="-35.3626293" lon="149.16517">
  <ele>583.43</ele>
  <time>2026-08-28T17:25:21Z</time>
  <course>354.98</course>
  <speed>1.103675676999362</speed>
  <fix>3d</fix>
</trkpt>
<trkpt lat="-35.362631" lon="149.1651701">
  <ele>583.28</ele>
  <time>2026-08-28T17:25:21Z</time>
  <course>354.7</course>
  <speed>1.19</speed>
  <fix>3d</fix>
</trkpt>
<trkpt lat="-35.3626205" lon="149.165169">
  <ele>583.4</ele>
  <time>2026-08-28T17:25:22Z</time>
  <course>354.99</course>
  <speed>0.8022468448052632</speed>
  <fix>3d</fix>
</trkpt>
<trkpt lat="-35.3626218" lon="149.165169">
  <ele>583.26</ele>
  <time>2026-08-28T17:25:22Z</time>
  <course>354.7</course>
  <speed>0.87</speed>
  <fix>3d</fix>
</trkpt>
<trkpt lat="-35.3626142" lon="149.1651683">
  <ele>583.37</ele>
  <time>2026-08-28T17:25:22Z</time>
  <course>355.0</course>
  <speed>0.5913543776789008</speed>
  <fix>3d</fix>
</trkpt>
<trkpt lat="-35.3626151" lon="149.1651683">
  <ele>583.24</ele>
  <time>2026-08-28T17:25:22Z</time>
  <course>354.7</course>
  <speed>0.63</speed>
  <fix>3d</fix>
</trkpt>
<trkpt lat="-35.3626095" lon="149.1651678">
  <ele>583.33</ele>
  <time>2026-08-28T17:25:22Z</time>
  <course>355.01</course>
  <speed>0.4310452412450461</speed>
  <fix>3d</fix>
</trkpt>
<trkpt lat="-35.3626102" lon="149.1651678">
  <ele>583.22</ele>
  <time>2026-08-28T17:25:22Z</time>
  <course>354.7</course>
  <speed>0.46</speed>
  <fix>3d</fix>
</trkpt>
<trkpt lat="-35.3626061" lon="149.1651674">
  <ele>583.32</ele>
  <time>2026-08-28T17:25:22Z</time>
  <course>355.01</course>
  <speed>0.32062439083762795</speed>
  <fix>3d</fix>
</trkpt>
<trkpt lat="-35.3626065" lon="149.1651674">
  <ele>583.21</ele>
  <time>2026-08-28T17:25:22Z</time>
  <course>354.7</course>
  <speed>0.34</speed>
  <fix>3d</fix>
</trkpt>
<trkpt lat="-35.3626035" lon="149.1651671">
  <ele>583.31</ele>
  <time>2026-08-28T17:25:22Z</time>
  <course>355.02</course>
  <speed>0.23021728866442676</speed>
  <fix>3d</fix>
</trkpt>
<trkpt lat="-35.3626039" lon="149.1651671">
  <ele>583.2</ele>
  <time>2026-08-28T17:25:22Z</time>
  <course>354.7</course>
  <speed>0.25</speed>
  <fix>3d</fix>
</trkpt>
</trkseg>
</trk>
</gpx>
